Wetterdaten: Montag, 17.04.2023
Datum Zeit Temp. Aussen Temp. o. S. Temp +5cm Feuchte Auss Luftdruck Regen Sonnenschein Regendauer Solar Windben Empfang
17.04.2023 00:00 9,6 C 8,9 C 5,6 C 95 % 1025,1 hPa 0,0 l/m 0 min 0 min 0 W/m 6,4 km/h (2 Bft) 100,00 %
17.04.2023 00:02 9,6 C 8,9 C 5,6 C 95 % 1025,1 hPa 0,0 l/m 0 min 0 min 0 W/m 12,9 km/h (3 Bft) 97,56 %
17.04.2023 00:04 9,6 C 8,9 C 5,6 C 95 % 1025,1 hPa 0,0 l/m 0 min 0 min 0 W/m 9,7 km/h (2 Bft) 100,00 %
17.04.2023 00:07 9,6 C 8,9 C 5,6 C 95 % 1025,0 hPa 0,0 l/m 0 min 0 min 0 W/m 16,1 km/h (3 Bft) 98,57 %
17.04.2023 00:08 9,6 C 8,9 C 5,6 C 95 % 1025,0 hPa 0,0 l/m 0 min 0 min 0 W/m 6,4 km/h (2 Bft) 100,00 %
17.04.2023 00:12 9,6 C 8,9 C 5,6 C 95 % 1025,1 hPa 0,0 l/m 0 min 0 min 0 W/m 9,7 km/h (2 Bft) 100,00 %
17.04.2023 00:14 9,5 C 8,9 C 5,6 C 95 % 1025,1 hPa 0,0 l/m 0 min 0 min 0 W/m 9,7 km/h (2 Bft) 97,87 %
17.04.2023 00:16 9,5 C 8,9 C 5,6 C 95 % 1025,1 hPa 0,0 l/m 0 min 0 min 0 W/m 9,7 km/h (2 Bft) 95,74 %
17.04.2023 00:18 9,6 C 8,9 C 5,6 C 95 % 1025,1 hPa 0,0 l/m 0 min 0 min 0 W/m 16,1 km/h (3 Bft) 100,00 %
17.04.2023 00:20 9,5 C 8,9 C 5,6 C 95 % 1025,1 hPa 0,0 l/m 0 min 0 min 0 W/m 9,7 km/h (2 Bft) 100,00 %
17.04.2023 00:22 9,5 C 8,9 C 5,6 C 95 % 1025,0 hPa 0,0 l/m 0 min 0 min 0 W/m 6,4 km/h (2 Bft) 100,00 %
17.04.2023 00:24 9,5 C 8,9 C 5,6 C 95 % 1025,1 hPa 0,0 l/m 0 min 0 min 0 W/m 22,5 km/h (4 Bft) 100,00 %
17.04.2023 00:26 9,5 C 8,9 C 5,6 C 95 % 1025,0 hPa 0,0 l/m 0 min 0 min 0 W/m 12,9 km/h (3 Bft) 97,87 %
17.04.2023 00:28 9,5 C 8,9 C 5,6 C 95 % 1025,0 hPa 0,0 l/m 0 min 0 min 0 W/m 9,7 km/h (2 Bft) 97,87 %
17.04.2023 00:30 9,5 C 8,9 C 5,6 C 95 % 1025,0 hPa 0,0 l/m 0 min 0 min 0 W/m 6,4 km/h (2 Bft) 100,00 %
17.04.2023 00:32 9,5 C 8,9 C 5,6 C 95 % 1025,0 hPa 0,0 l/m 0 min 0 min 0 W/m 12,9 km/h (3 Bft) 100,00 %
17.04.2023 00:34 9,5 C 8,9 C 5,6 C 95 % 1025,0 hPa 0,0 l/m 0 min 0 min 0 W/m 12,9 km/h (3 Bft) 100,00 %
17.04.2023 00:36 9,5 C 8,9 C 5,6 C 95 % 1025,0 hPa 0,0 l/m 0 min 0 min 0 W/m 9,7 km/h (2 Bft) 100,00 %
17.04.2023 00:38 9,5 C 8,9 C 5,6 C 95 % 1025,0 hPa 0,0 l/m 0 min 0 min 0 W/m 9,7 km/h (2 Bft) 100,00 %
17.04.2023 00:40 9,5 C 8,9 C 5,6 C 95 % 1025,0 hPa 0,0 l/m 0 min 0 min 0 W/m 6,4 km/h (2 Bft) 100,00 %
17.04.2023 00:42 9,5 C 8,9 C 5,6 C 95 % 1025,0 hPa 0,0 l/m 0 min 0 min 0 W/m 16,1 km/h (3 Bft) 100,00 %
17.04.2023 00:44 9,5 C 8,9 C 5,6 C 95 % 1024,9 hPa 0,0 l/m 0 min 0 min 0 W/m 9,7 km/h (2 Bft) 100,00 %
17.04.2023 00:46 9,5 C 8,9 C 5,6 C 96 % 1024,9 hPa 0,0 l/m 0 min 0 min 0 W/m 12,9 km/h (3 Bft) 100,00 %
17.04.2023 00:48 9,5 C 8,9 C 5,6 C 96 % 1024,9 hPa 0,0 l/m 0 min 0 min 0 W/m 12,9 km/h (3 Bft) 95,74 %
17.04.2023 00:50 9,5 C 8,9 C 5,6 C 96 % 1024,9 hPa 0,0 l/m 0 min 0 min 0 W/m 12,9 km/h (3 Bft) 97,87 %
17.04.2023 00:52 9,5 C 8,9 C 5,6 C 96 % 1024,9 hPa 0,0 l/m 0 min 0 min 0 W/m 12,9 km/h (3 Bft) 97,87 %
17.04.2023 00:54 9,5 C 8,9 C 5,6 C 96 % 1024,9 hPa 0,0 l/m 0 min 0 min 0 W/m 16,1 km/h (3 Bft) 97,83 %
17.04.2023 00:56 9,5 C 8,9 C 5,6 C 96 % 1024,9 hPa 0,0 l/m 0 min 0 min 0 W/m 9,7 km/h (2 Bft) 95,74 %
17.04.2023 00:58 9,5 C 8,9 C 5,6 C 96 % 1024,9 hPa 0,0 l/m 0 min 0 min 0 W/m 12,9 km/h (3 Bft) 97,87 %
17.04.2023 01:00 9,5 C 8,9 C 5,6 C 96 % 1024,9 hPa 0,0 l/m 0 min 0 min 0 W/m 9,7 km/h (2 Bft) 93,62 %
17.04.2023 01:02 9,5 C 8,9 C 5,6 C 95 % 1024,9 hPa 0,0 l/m 0 min 0 min 0 W/m 9,7 km/h (2 Bft) 93,62 %
17.04.2023 01:04 9,5 C 8,9 C 5,6 C 96 % 1024,9 hPa 0,0 l/m 0 min 0 min 0 W/m 12,9 km/h (3 Bft) 95,83 %
17.04.2023 01:06 9,5 C 8,9 C 5,6 C 96 % 1024,9 hPa 0,0 l/m 0 min 0 min 0 W/m 19,3 km/h (3 Bft) 93,10 %
17.04.2023 01:08 9,6 C 8,9 C 5,6 C 96 % 1024,9 hPa 0,0 l/m 0 min 0 min 0 W/m 12,9 km/h (3 Bft) 91,67 %
17.04.2023 01:10 9,6 C 8,9 C 5,6 C 96 % 1024,9 hPa 0,0 l/m 0 min 0 min 0 W/m 9,7 km/h (2 Bft) 95,74 %
17.04.2023 01:12 9,5 C 8,9 C 5,6 C 96 % 1024,9 hPa 0,0 l/m 0 min 0 min 0 W/m 22,5 km/h (4 Bft) 95,74 %
17.04.2023 01:14 9,6 C 8,9 C 5,6 C 96 % 1024,9 hPa 0,0 l/m 0 min 0 min 0 W/m 16,1 km/h (3 Bft) 95,74 %
17.04.2023 01:16 9,6 C 8,9 C 5,6 C 96 % 1024,9 hPa 0,0 l/m 0 min 0 min 0 W/m 9,7 km/h (2 Bft) 93,88 %
17.04.2023 01:18 9,6 C 8,9 C 5,6 C 96 % 1024,9 hPa 0,0 l/m 0 min 0 min 0 W/m 12,9 km/h (3 Bft) 95,65 %
17.04.2023 01:20 9,6 C 8,9 C 5,6 C 96 % 1024,9 hPa 0,0 l/m 0 min 0 min 0 W/m 16,1 km/h (3 Bft) 95,74 %
17.04.2023 01:22 9,6 C 8,9 C 5,6 C 96 % 1024,9 hPa 0,0 l/m 0 min 0 min 0 W/m 12,9 km/h (3 Bft) 91,49 %
17.04.2023 01:24 9,6 C 8,9 C 5,6 C 96 % 1024,9 hPa 0,0 l/m 0 min 0 min 0 W/m 9,7 km/h (2 Bft) 93,62 %
17.04.2023 01:26 9,6 C 8,9 C 5,6 C 96 % 1024,9 hPa 0,0 l/m 0 min 0 min 0 W/m 6,4 km/h (2 Bft) 93,62 %
17.04.2023 01:28 9,6 C 8,9 C 5,6 C 96 % 1024,9 hPa 0,0 l/m 0 min 0 min 0 W/m 12,9 km/h (3 Bft) 93,62 %
17.04.2023 01:30 9,6 C 8,9 C 5,6 C 96 % 1024,9 hPa 0,0 l/m 0 min 0 min 0 W/m 12,9 km/h (3 Bft) 95,74 %
17.04.2023 01:32 9,6 C 8,9 C 5,6 C 96 % 1024,9 hPa 0,0 l/m 0 min 0 min 0 W/m 12,9 km/h (3 Bft) 97,83 %
17.04.2023 01:34 9,6 C 8,9 C 5,6 C 96 % 1024,8 hPa 0,0 l/m 0 min 0 min 0 W/m 6,4 km/h (2 Bft) 95,74 %
17.04.2023 01:36 9,6 C 8,9 C 5,6 C 96 % 1024,9 hPa 0,0 l/m 0 min 0 min 0 W/m 6,4 km/h (2 Bft) 95,74 %
17.04.2023 01:38 9,6 C 8,9 C 5,6 C 96 % 1024,8 hPa 0,0 l/m 0 min 0 min 0 W/m 9,7 km/h (2 Bft) 93,62 %
17.04.2023 01:40 9,6 C 8,9 C 5,6 C 96 % 1024,9 hPa 0,0 l/m 0 min 0 min 0 W/m 6,4 km/h (2 Bft) 93,62 %
17.04.2023 01:42 9,6 C 8,9 C 5,6 C 96 % 1024,9 hPa 0,0 l/m 0 min 0 min 0 W/m 9,7 km/h (2 Bft) 97,87 %
17.04.2023 01:44 9,6 C 8,9 C 5,6 C 96 % 1024,8 hPa 0,0 l/m 0 min 0 min 0 W/m 12,9 km/h (3 Bft) 95,65 %
17.04.2023 01:46 9,6 C 8,9 C 5,6 C 96 % 1024,9 hPa 0,0 l/m 0 min 0 min 0 W/m 12,9 km/h (3 Bft) 97,87 %
17.04.2023 01:48 9,6 C 8,9 C 5,6 C 96 % 1024,9 hPa 0,0 l/m 0 min 0 min 0 W/m 16,1 km/h (3 Bft) 97,87 %
17.04.2023 01:50 9,6 C 8,9 C 5,6 C 96 % 1024,8 hPa 0,0 l/m 0 min 0 min 0 W/m 9,7 km/h (2 Bft) 97,87 %
17.04.2023 01:52 9,6 C 8,9 C 5,6 C 96 % 1024,9 hPa 0,0 l/m 0 min 0 min 0 W/m 6,4 km/h (2 Bft) 97,87 %
17.04.2023 01:54 9,6 C 8,9 C 5,6 C 96 % 1024,9 hPa 0,0 l/m 0 min 0 min 0 W/m 16,1 km/h (3 Bft) 97,87 %
17.04.2023 01:56 9,6 C 8,9 C 5,6 C 96 % 1024,8 hPa 0,0 l/m 0 min 0 min 0 W/m 9,7 km/h (2 Bft) 95,65 %
17.04.2023 01:58 9,6 C 8,9 C 5,6 C 96 % 1024,9 hPa 0,0 l/m 0 min 0 min 0 W/m 12,9 km/h (3 Bft) 97,87 %
17.04.2023 02:00 9,6 C 8,9 C 5,6 C 96 % 1024,9 hPa 0,0 l/m 0 min 0 min 0 W/m 6,4 km/h (2 Bft) 97,92 %
17.04.2023 02:02 9,6 C 8,9 C 5,6 C 96 % 1025,0 hPa 0,0 l/m 0 min 0 min 0 W/m 9,7 km/h (2 Bft) 97,87 %
17.04.2023 02:04 9,6 C 8,9 C 5,6 C 96 % 1024,9 hPa 0,0 l/m 0 min 0 min 0 W/m 12,9 km/h (3 Bft) 97,83 %
17.04.2023 02:06 9,6 C 8,9 C 5,6 C 96 % 1024,9 hPa 0,0 l/m 0 min 0 min 0 W/m 6,4 km/h (2 Bft) 97,87 %
17.04.2023 02:08 9,6 C 8,9 C 5,6 C 96 % 1024,9 hPa 0,0 l/m 0 min 0 min 0 W/m 6,4 km/h (2 Bft) 100,00 %
17.04.2023 02:10 9,6 C 8,9 C 5,6 C 96 % 1024,9 hPa 0,0 l/m 0 min 0 min 0 W/m 6,4 km/h (2 Bft) 100,00 %
17.04.2023 02:12 9,6 C 8,9 C 5,6 C 96 % 1024,9 hPa 0,0 l/m 0 min 0 min 0 W/m 9,7 km/h (2 Bft) 100,00 %
17.04.2023 02:14 9,6 C 8,9 C 5,6 C 96 % 1024,9 hPa 0,0 l/m 0 min 0 min 0 W/m 16,1 km/h (3 Bft) 100,00 %
17.04.2023 02:16 9,6 C 8,9 C 5,6 C 96 % 1024,9 hPa 0,0 l/m 0 min 0 min 0 W/m 9,7 km/h (2 Bft) 100,00 %
17.04.2023 02:18 9,6 C 8,9 C 5,6 C 96 % 1024,8 hPa 0,0 l/m 0 min 0 min 0 W/m 12,9 km/h (3 Bft) 100,00 %
17.04.2023 02:20 9,6 C 8,9 C 5,6 C 96 % 1024,8 hPa 0,0 l/m 0 min 0 min 0 W/m 12,9 km/h (3 Bft) 100,00 %
17.04.2023 02:22 9,6 C 8,9 C 5,6 C 96 % 1024,8 hPa 0,0 l/m 0 min 0 min 0 W/m 3,2 km/h (1 Bft) 97,83 %
17.04.2023 02:24 9,6 C 8,9 C 5,6 C 96 % 1024,8 hPa 0,0 l/m 0 min 0 min 0 W/m 3,2 km/h (1 Bft) 100,00 %
17.04.2023 02:26 9,6 C 8,9 C 5,6 C 96 % 1024,8 hPa 0,0 l/m 0 min 0 min 0 W/m 6,4 km/h (2 Bft) 100,00 %
17.04.2023 02:28 9,6 C 8,9 C 5,6 C 96 % 1024,8 hPa 0,0 l/m 0 min 0 min 0 W/m 9,7 km/h (2 Bft) 100,00 %
17.04.2023 02:30 9,6 C 8,9 C 5,6 C 96 % 1024,8 hPa 0,0 l/m 0 min 0 min 0 W/m 16,1 km/h (3 Bft) 100,00 %
17.04.2023 02:32 9,6 C 8,9 C 5,6 C 96 % 1024,8 hPa 0,0 l/m 0 min 0 min 0 W/m 3,2 km/h (1 Bft) 100,00 %
17.04.2023 02:34 9,6 C 8,9 C 5,6 C 96 % 1024,8 hPa 0,0 l/m 0 min 0 min 0 W/m 9,7 km/h (2 Bft) 100,00 %
17.04.2023 02:36 9,6 C 8,9 C 5,6 C 96 % 1024,8 hPa 0,0 l/m 0 min 0 min 0 W/m 9,7 km/h (2 Bft) 97,87 %
17.04.2023 02:38 9,6 C 8,9 C 5,6 C 96 % 1024,8 hPa 0,0 l/m 0 min 0 min 0 W/m 9,7 km/h (2 Bft) 97,87 %
17.04.2023 02:40 9,6 C 8,9 C 5,6 C 96 % 1024,8 hPa 0,0 l/m 0 min 0 min 0 W/m 6,4 km/h (2 Bft) 100,00 %
17.04.2023 02:42 9,6 C 8,9 C 5,6 C 96 % 1024,8 hPa 0,0 l/m 0 min 0 min 0 W/m 9,7 km/h (2 Bft) 100,00 %
17.04.2023 02:44 9,6 C 8,9 C 5,6 C 96 % 1024,8 hPa 0,0 l/m 0 min 0 min 0 W/m 6,4 km/h (2 Bft) 100,00 %
17.04.2023 02:46 9,6 C 8,9 C 5,6 C 96 % 1024,7 hPa 0,0 l/m 0 min 0 min 0 W/m 9,7 km/h (2 Bft) 100,00 %
17.04.2023 02:48 9,6 C 8,9 C 5,6 C 96 % 1024,8 hPa 0,0 l/m 0 min 0 min 0 W/m 9,7 km/h (2 Bft) 100,00 %
17.04.2023 02:50 9,6 C 8,9 C 5,6 C 96 % 1024,8 hPa 0,0 l/m 0 min 0 min 0 W/m 12,9 km/h (3 Bft) 97,87 %
17.04.2023 02:52 9,6 C 8,9 C 5,6 C 96 % 1024,7 hPa 0,0 l/m 0 min 0 min 0 W/m 19,3 km/h (3 Bft) 95,74 %
17.04.2023 02:54 9,6 C 8,9 C 5,6 C 96 % 1024,8 hPa 0,0 l/m 0 min 0 min 0 W/m 6,4 km/h (2 Bft) 95,74 %
17.04.2023 02:56 9,6 C 8,9 C 5,6 C 96 % 1024,7 hPa 0,0 l/m 0 min 0 min 0 W/m 6,4 km/h (2 Bft) 97,87 %
17.04.2023 02:58 9,6 C 8,9 C 5,6 C 96 % 1024,7 hPa 0,0 l/m 0 min 0 min 0 W/m 9,7 km/h (2 Bft) 95,92 %
17.04.2023 03:00 9,5 C 8,9 C 5,6 C 96 % 1024,7 hPa 0,0 l/m 0 min 0 min 0 W/m 9,7 km/h (2 Bft) 98,11 %
17.04.2023 03:02 9,5 C 8,9 C 5,6 C 96 % 1024,7 hPa 0,0 l/m 0 min 0 min 0 W/m 3,2 km/h (1 Bft) 97,87 %
17.04.2023 03:04 9,5 C 8,9 C 5,6 C 96 % 1024,7 hPa 0,0 l/m 0 min 0 min 0 W/m 9,7 km/h (2 Bft) 97,87 %
17.04.2023 03:06 9,5 C 8,9 C 5,6 C 96 % 1024,7 hPa 0,0 l/m 0 min 0 min 0 W/m 6,4 km/h (2 Bft) 97,87 %
17.04.2023 03:08 9,5 C 8,9 C 5,6 C 96 % 1024,7 hPa 0,0 l/m 0 min 0 min 0 W/m 12,9 km/h (3 Bft) 97,67 %
17.04.2023 03:10 9,5 C 8,9 C 5,6 C 96 % 1024,7 hPa 0,0 l/m 0 min 0 min 0 W/m 12,9 km/h (3 Bft) 97,83 %
17.04.2023 03:12 9,5 C 8,9 C 5,6 C 96 % 1024,7 hPa 0,0 l/m 0 min 0 min 0 W/m 12,9 km/h (3 Bft) 95,74 %
17.04.2023 03:14 9,4 C 8,9 C 5,6 C 96 % 1024,7 hPa 0,0 l/m 0 min 0 min 0 W/m 9,7 km/h (2 Bft) 97,87 %
17.04.2023 03:16 9,4 C 8,9 C 5,6 C 96 % 1024,7 hPa 0,0 l/m 0 min 0 min 0 W/m 6,4 km/h (2 Bft) 97,87 %
17.04.2023 03:18 9,4 C 8,9 C 5,6 C 96 % 1024,7 hPa 0,0 l/m 0 min 0 min 0 W/m 12,9 km/h (3 Bft) 100,00 %
17.04.2023 03:20 9,4 C 8,9 C 5,6 C 96 % 1024,7 hPa 0,0 l/m 0 min 0 min 0 W/m 16,1 km/h (3 Bft) 97,87 %
17.04.2023 03:22 9,4 C 8,9 C 5,6 C 96 % 1024,7 hPa 0,0 l/m 0 min 0 min 0 W/m 12,9 km/h (3 Bft) 95,65 %
17.04.2023 03:24 9,4 C 8,9 C 5,6 C 96 % 1024,7 hPa 0,0 l/m 0 min 0 min 0 W/m 6,4 km/h (2 Bft) 100,00 %
17.04.2023 03:26 9,4 C 8,9 C 5,6 C 96 % 1024,7 hPa 0,0 l/m 0 min 0 min 0 W/m 12,9 km/h (3 Bft) 98,11 %
17.04.2023 03:28 9,4 C 8,9 C 5,6 C 96 % 1024,7 hPa 0,0 l/m 0 min 0 min 0 W/m 6,4 km/h (2 Bft) 100,00 %
17.04.2023 03:30 9,4 C 8,9 C 5,6 C 96 % 1024,7 hPa 0,0 l/m 0 min 0 min 0 W/m 12,9 km/h (3 Bft) 100,00 %
17.04.2023 03:32 9,4 C 8,9 C 5,6 C 96 % 1024,7 hPa 0,0 l/m 0 min 0 min 0 W/m 9,7 km/h (2 Bft) 97,87 %
17.04.2023 03:34 9,4 C 8,9 C 5,6 C 96 % 1024,8 hPa 0,0 l/m 0 min 0 min 0 W/m 12,9 km/h (3 Bft) 97,22 %
17.04.2023 03:36 9,3 C 8,9 C 5,6 C 96 % 1024,7 hPa 0,0 l/m 0 min 0 min 0 W/m 12,9 km/h (3 Bft) 100,00 %
17.04.2023 03:38 9,3 C 8,9 C 5,6 C 96 % 1024,7 hPa 0,0 l/m 0 min 0 min 0 W/m 12,9 km/h (3 Bft) 97,87 %
17.04.2023 03:40 9,3 C 8,9 C 5,6 C 96 % 1024,7 hPa 0,0 l/m 0 min 0 min 0 W/m 16,1 km/h (3 Bft) 100,00 %
17.04.2023 03:42 9,3 C 8,9 C 5,6 C 96 % 1024,7 hPa 0,0 l/m 0 min 0 min 0 W/m 16,1 km/h (3 Bft) 100,00 %
17.04.2023 03:44 9,3 C 8,9 C 5,6 C 96 % 1024,7 hPa 0,0 l/m 0 min 0 min 0 W/m 16,1 km/h (3 Bft) 97,96 %
17.04.2023 03:46 9,3 C 8,9 C 5,6 C 96 % 1024,7 hPa 0,0 l/m 0 min 0 min 0 W/m 12,9 km/h (3 Bft) 100,00 %
17.04.2023 03:48 9,3 C 8,9 C 5,6 C 96 % 1024,7 hPa 0,0 l/m 0 min 0 min 0 W/m 16,1 km/h (3 Bft) 100,00 %
17.04.2023 03:50 9,3 C 8,9 C 5,6 C 96 % 1024,7 hPa 0,0 l/m 0 min 0 min 0 W/m 16,1 km/h (3 Bft) 100,00 %
17.04.2023 03:52 9,3 C 8,9 C 5,6 C 96 % 1024,7 hPa 0,0 l/m 0 min 0 min 0 W/m 9,7 km/h (2 Bft) 100,00 %
17.04.2023 03:54 9,3 C 8,9 C 5,6 C 96 % 1024,8 hPa 0,0 l/m 0 min 0 min 0 W/m 19,3 km/h (3 Bft) 97,87 %
17.04.2023 03:56 9,3 C 8,9 C 5,6 C 96 % 1024,8 hPa 0,0 l/m 0 min 0 min 0 W/m 16,1 km/h (3 Bft) 97,87 %
17.04.2023 03:58 9,3 C 8,9 C 5,6 C 96 % 1024,8 hPa 0,0 l/m 0 min 0 min 0 W/m 9,7 km/h (2 Bft) 93,75 %
17.04.2023 04:00 9,3 C 8,9 C 5,6 C 96 % 1024,7 hPa 0,0 l/m 0 min 0 min 0 W/m 9,7 km/h (2 Bft) 95,74 %
17.04.2023 04:02 9,3 C 8,9 C 5,6 C 96 % 1024,7 hPa 0,0 l/m 0 min 0 min 0 W/m 6,4 km/h (2 Bft) 92,86 %
17.04.2023 04:04 9,3 C 8,9 C 5,6 C 96 % 1024,8 hPa 0,0 l/m 0 min 0 min 0 W/m 6,4 km/h (2 Bft) 95,65 %
17.04.2023 04:06 9,3 C 8,9 C 5,6 C 96 % 1024,8 hPa 0,0 l/m 0 min 0 min 0 W/m 6,4 km/h (2 Bft) 95,74 %
17.04.2023 04:08 9,3 C 8,9 C 5,6 C 96 % 1024,8 hPa 0,0 l/m 0 min 0 min 0 W/m 6,4 km/h (2 Bft) 93,62 %
17.04.2023 04:10 9,3 C 8,3 C 5,6 C 96 % 1024,8 hPa 0,0 l/m 0 min 0 min 0 W/m 12,9 km/h (3 Bft) 93,62 %
17.04.2023 04:12 9,3 C 8,3 C 5,6 C 96 % 1024,7 hPa 0,0 l/m 0 min 0 min 0 W/m 12,9 km/h (3 Bft) 95,92 %
17.04.2023 04:14 9,3 C 8,3 C 5,6 C 96 % 1024,8 hPa 0,0 l/m 0 min 0 min 0 W/m 6,4 km/h (2 Bft) 94,44 %
17.04.2023 04:16 9,3 C 8,3 C 5,6 C 96 % 1024,7 hPa 0,0 l/m 0 min 0 min 0 W/m 19,3 km/h (3 Bft) 94,55 %
17.04.2023 04:18 9,3 C 8,3 C 5,6 C 96 % 1024,7 hPa 0,0 l/m 0 min 0 min 0 W/m 9,7 km/h (2 Bft) 93,62 %
17.04.2023 04:20 9,3 C 8,3 C 5,6 C 96 % 1024,7 hPa 0,0 l/m 0 min 0 min 0 W/m 6,4 km/h (2 Bft) 95,74 %
17.04.2023 04:22 9,3 C 8,3 C 5,6 C 96 % 1024,7 hPa 0,0 l/m 0 min 0 min 0 W/m 9,7 km/h (2 Bft) 95,74 %
17.04.2023 04:24 9,3 C 8,3 C 5,6 C 96 % 1024,7 hPa 0,0 l/m 0 min 0 min 0 W/m 9,7 km/h (2 Bft) 94,00 %
17.04.2023 04:26 9,3 C 8,3 C 5,6 C 96 % 1024,8 hPa 0,0 l/m 0 min 0 min 0 W/m 6,4 km/h (2 Bft) 97,14 %
17.04.2023 04:28 9,2 C 8,3 C 5,6 C 96 % 1024,7 hPa 0,0 l/m 0 min 0 min 0 W/m 6,4 km/h (2 Bft) 94,64 %
17.04.2023 04:30 9,2 C 8,3 C 5,6 C 96 % 1024,7 hPa 0,0 l/m 0 min 0 min 0 W/m 12,9 km/h (3 Bft) 93,48 %
17.04.2023 04:32 9,2 C 8,3 C 5,6 C 96 % 1024,8 hPa 0,0 l/m 0 min 0 min 0 W/m 6,4 km/h (2 Bft) 95,74 %
17.04.2023 04:34 9,2 C 8,3 C 5,6 C 96 % 1024,8 hPa 0,0 l/m 0 min 0 min 0 W/m 12,9 km/h (3 Bft) 93,62 %
17.04.2023 04:36 9,2 C 8,3 C 5,6 C 96 % 1024,8 hPa 0,0 l/m 0 min 0 min 0 W/m 9,7 km/h (2 Bft) 93,62 %
17.04.2023 04:38 9,2 C 8,3 C 5,6 C 96 % 1024,7 hPa 0,0 l/m 0 min 0 min 0 W/m 12,9 km/h (3 Bft) 89,36 %
17.04.2023 04:40 9,2 C 8,3 C 5,6 C 96 % 1024,8 hPa 0,0 l/m 0 min 0 min 0 W/m 12,9 km/h (3 Bft) 91,49 %
17.04.2023 04:42 9,2 C 8,3 C 5,6 C 96 % 1024,7 hPa 0,0 l/m 0 min 0 min 0 W/m 12,9 km/h (3 Bft) 93,48 %
17.04.2023 04:44 9,2 C 8,3 C 5,6 C 96 % 1024,8 hPa 0,0 l/m 0 min 0 min 0 W/m 9,7 km/h (2 Bft) 97,87 %
17.04.2023 04:46 9,2 C 8,3 C 5,6 C 96 % 1024,8 hPa 0,0 l/m 0 min 0 min 0 W/m 9,7 km/h (2 Bft) 95,74 %
17.04.2023 04:48 9,2 C 8,3 C 5,6 C 96 % 1024,8 hPa 0,0 l/m 0 min 0 min 0 W/m 9,7 km/h (2 Bft) 95,74 %
17.04.2023 04:50 9,2 C 8,3 C 5,6 C 96 % 1024,8 hPa 0,0 l/m 0 min 0 min 0 W/m 3,2 km/h (1 Bft) 93,62 %
17.04.2023 04:52 9,2 C 8,3 C 5,6 C 96 % 1024,8 hPa 0,0 l/m 0 min 0 min 0 W/m 12,9 km/h (3 Bft) 97,87 %
17.04.2023 04:54 9,2 C 8,3 C 5,6 C 96 % 1024,8 hPa 0,0 l/m 0 min 0 min 0 W/m 3,2 km/h (1 Bft) 97,83 %
17.04.2023 04:56 9,2 C 8,3 C 5,6 C 96 % 1024,8 hPa 0,0 l/m 0 min 0 min 0 W/m 6,4 km/h (2 Bft) 97,87 %
17.04.2023 04:58 9,2 C 8,3 C 5,6 C 96 % 1024,8 hPa 0,0 l/m 0 min 0 min 0 W/m 6,4 km/h (2 Bft) 95,74 %
17.04.2023 05:00 9,1 C 8,3 C 5,6 C 96 % 1024,8 hPa 0,0 l/m 0 min 0 min 0 W/m 16,1 km/h (3 Bft) 97,87 %
17.04.2023 05:02 9,1 C 8,3 C 5,6 C 96 % 1024,8 hPa 0,0 l/m 0 min 0 min 0 W/m 9,7 km/h (2 Bft) 97,87 %
17.04.2023 05:04 9,1 C 8,3 C 5,6 C 96 % 1024,8 hPa 0,0 l/m 0 min 0 min 0 W/m 12,9 km/h (3 Bft) 93,62 %
17.04.2023 05:06 9,1 C 8,3 C 5,6 C 96 % 1024,8 hPa 0,0 l/m 0 min 0 min 0 W/m 9,7 km/h (2 Bft) 97,87 %
17.04.2023 05:08 9,1 C 8,3 C 5,6 C 96 % 1024,8 hPa 0,0 l/m 0 min 0 min 0 W/m 16,1 km/h (3 Bft) 100,00 %
17.04.2023 05:10 9,1 C 8,3 C 5,6 C 96 % 1024,8 hPa 0,0 l/m 0 min 0 min 0 W/m 9,7 km/h (2 Bft) 100,00 %
17.04.2023 05:12 9,1 C 8,3 C 5,0 C 96 % 1024,9 hPa 0,0 l/m 0 min 0 min 0 W/m 16,1 km/h (3 Bft) 100,00 %
17.04.2023 05:14 9,1 C 8,3 C 5,0 C 96 % 1024,8 hPa 0,0 l/m 0 min 0 min 0 W/m 9,7 km/h (2 Bft) 100,00 %
17.04.2023 05:16 9,1 C 8,3 C 5,0 C 96 % 1024,9 hPa 0,0 l/m 0 min 0 min 0 W/m 12,9 km/h (3 Bft) 100,00 %
17.04.2023 05:18 9,1 C 8,3 C 5,0 C 96 % 1024,9 hPa 0,0 l/m 0 min 0 min 0 W/m 6,4 km/h (2 Bft) 100,00 %
17.04.2023 05:20 9,1 C 8,3 C 5,0 C 96 % 1024,9 hPa 0,0 l/m 0 min 0 min 0 W/m 6,4 km/h (2 Bft) 100,00 %
17.04.2023 05:22 9,1 C 8,3 C 5,0 C 96 % 1024,8 hPa 0,0 l/m 0 min 0 min 0 W/m 9,7 km/h (2 Bft) 100,00 %
17.04.2023 05:24 9,1 C 8,3 C 5,0 C 96 % 1024,9 hPa 0,0 l/m 0 min 0 min 0 W/m 9,7 km/h (2 Bft) 100,00 %
17.04.2023 05:26 9,1 C 8,3 C 5,0 C 96 % 1024,9 hPa 0,0 l/m 0 min 0 min 0 W/m 9,7 km/h (2 Bft) 100,00 %
17.04.2023 05:28 9,1 C 8,3 C 5,0 C 96 % 1024,9 hPa 0,0 l/m 0 min 0 min 0 W/m 19,3 km/h (3 Bft) 97,87 %
17.04.2023 05:30 9,1 C 8,3 C 5,0 C 96 % 1024,9 hPa 0,0 l/m 0 min 0 min 0 W/m 6,4 km/h (2 Bft) 97,87 %
17.04.2023 05:32 9,1 C 8,3 C 5,0 C 96 % 1024,9 hPa 0,0 l/m 0 min 0 min 0 W/m 6,4 km/h (2 Bft) 100,00 %
17.04.2023 05:34 9,1 C 8,3 C 5,0 C 96 % 1024,8 hPa 0,0 l/m 0 min 0 min 0 W/m 9,7 km/h (2 Bft) 100,00 %
17.04.2023 05:36 9,1 C 8,3 C 5,0 C 96 % 1024,9 hPa 0,0 l/m 0 min 0 min 0 W/m 9,7 km/h (2 Bft) 100,00 %
17.04.2023 05:38 9,1 C 8,3 C 5,0 C 96 % 1024,9 hPa 0,0 l/m 0 min 0 min 0 W/m 12,9 km/h (3 Bft) 100,00 %
17.04.2023 05:40 9,1 C 8,3 C 5,0 C 96 % 1024,9 hPa 0,0 l/m 0 min 0 min 0 W/m 12,9 km/h (3 Bft) 100,00 %
17.04.2023 05:42 9,1 C 8,3 C 5,0 C 96 % 1024,9 hPa 0,0 l/m 0 min 0 min 0 W/m 9,7 km/h (2 Bft) 95,74 %
17.04.2023 05:44 9,1 C 8,3 C 5,0 C 96 % 1024,9 hPa 0,0 l/m 0 min 0 min 0 W/m 9,7 km/h (2 Bft) 97,92 %
17.04.2023 05:46 9,0 C 8,3 C 5,0 C 96 % 1024,9 hPa 0,0 l/m 0 min 0 min 0 W/m 16,1 km/h (3 Bft) 100,00 %
17.04.2023 05:48 9,0 C 8,3 C 5,0 C 96 % 1024,9 hPa 0,0 l/m 0 min 0 min 0 W/m 6,4 km/h (2 Bft) 100,00 %
17.04.2023 05:50 9,0 C 8,3 C 5,0 C 96 % 1024,9 hPa 0,0 l/m 0 min 0 min 0 W/m 12,9 km/h (3 Bft) 100,00 %
17.04.2023 05:52 9,0 C 8,3 C 5,0 C 96 % 1024,9 hPa 0,0 l/m 0 min 0 min 0 W/m 9,7 km/h (2 Bft) 100,00 %
17.04.2023 05:54 9,0 C 8,3 C 5,0 C 96 % 1024,9 hPa 0,0 l/m 0 min 0 min 0 W/m 12,9 km/h (3 Bft) 100,00 %
17.04.2023 05:56 9,0 C 8,3 C 5,0 C 96 % 1024,9 hPa 0,0 l/m 0 min 0 min 0 W/m 9,7 km/h (2 Bft) 95,65 %
17.04.2023 05:58 8,9 C 8,3 C 5,0 C 96 % 1024,9 hPa 0,0 l/m 0 min 0 min 0 W/m 12,9 km/h (3 Bft) 100,00 %
17.04.2023 06:00 8,9 C 8,3 C 5,0 C 96 % 1024,9 hPa 0,0 l/m 0 min 0 min 0 W/m 12,9 km/h (3 Bft) 100,00 %
17.04.2023 06:02 8,9 C 8,3 C 5,0 C 96 % 1024,9 hPa 0,0 l/m 0 min 0 min 0 W/m 9,7 km/h (2 Bft) 100,00 %
17.04.2023 06:04 8,9 C 8,3 C 5,0 C 96 % 1024,9 hPa 0,0 l/m 0 min 0 min 0 W/m 9,7 km/h (2 Bft) 100,00 %
17.04.2023 06:07 8,9 C 8,3 C 5,0 C 96 % 1024,9 hPa 0,0 l/m 0 min 0 min 0 W/m 12,9 km/h (3 Bft) 100,00 %
17.04.2023 06:08 8,9 C 8,3 C 5,0 C 96 % 1024,9 hPa 0,0 l/m 0 min 0 min 0 W/m 6,4 km/h (2 Bft) 100,00 %
17.04.2023 06:10 8,9 C 8,3 C 5,0 C 96 % 1024,9 hPa 0,0 l/m 0 min 0 min 0 W/m 6,4 km/h (2 Bft) 97,83 %
17.04.2023 06:12 8,9 C 8,3 C 5,0 C 96 % 1024,9 hPa 0,0 l/m 0 min 0 min 0 W/m 9,7 km/h (2 Bft) 97,87 %
17.04.2023 06:14 8,9 C 8,3 C 5,0 C 96 % 1024,9 hPa 0,0 l/m 0 min 0 min 0 W/m 6,4 km/h (2 Bft) 53,49 %
17.04.2023 06:16 8,9 C 8,3 C 5,0 C 96 % 1024,9 hPa 0,0 l/m 0 min 0 min 0 W/m 12,9 km/h (3 Bft) 100,00 %
17.04.2023 06:18 8,9 C 8,3 C 5,0 C 96 % 1025,0 hPa 0,0 l/m 0 min 0 min 0 W/m 9,7 km/h (2 Bft) 100,00 %
17.04.2023 06:20 8,9 C 8,3 C 5,0 C 96 % 1025,0 hPa 0,0 l/m 0 min 0 min 0 W/m 16,1 km/h (3 Bft) 97,87 %
17.04.2023 06:22 8,9 C 8,3 C 5,0 C 96 % 1025,0 hPa 0,0 l/m 0 min 0 min 0 W/m 6,4 km/h (2 Bft) 100,00 %
17.04.2023 06:24 8,9 C 8,3 C 5,0 C 96 % 1025,0 hPa 0,0 l/m 0 min 0 min 0 W/m 3,2 km/h (1 Bft) 97,87 %
17.04.2023 06:26 8,9 C 8,3 C 5,0 C 96 % 1025,0 hPa 0,0 l/m 0 min 0 min 0 W/m 9,7 km/h (2 Bft) 100,00 %
17.04.2023 06:28 8,9 C 8,3 C 5,0 C 96 % 1025,1 hPa 0,0 l/m 0 min 0 min 0 W/m 12,9 km/h (3 Bft) 95,74 %
17.04.2023 06:30 8,9 C 8,3 C 5,0 C 96 % 1025,0 hPa 0,0 l/m 0 min 0 min 0 W/m 6,4 km/h (2 Bft) 95,74 %
17.04.2023 06:32 8,9 C 8,3 C 5,0 C 96 % 1025,0 hPa 0,0 l/m 0 min 0 min 0 W/m 9,7 km/h (2 Bft) 95,74 %
17.04.2023 06:34 8,9 C 8,3 C 5,0 C 96 % 1025,1 hPa 0,0 l/m 0 min 0 min 0 W/m 9,7 km/h (2 Bft) 95,65 %
17.04.2023 06:36 8,9 C 8,3 C 5,0 C 96 % 1025,1 hPa 0,0 l/m 0 min 0 min 0 W/m 6,4 km/h (2 Bft) 95,74 %
17.04.2023 06:38 8,9 C 8,3 C 5,0 C 96 % 1025,1 hPa 0,0 l/m 0 min 0 min 0 W/m 12,9 km/h (3 Bft) 95,74 %
17.04.2023 06:40 8,9 C 8,3 C 5,0 C 96 % 1025,1 hPa 0,0 l/m 0 min 0 min 0 W/m 9,7 km/h (2 Bft) 95,74 %
17.04.2023 06:42 8,9 C 8,3 C 5,0 C 96 % 1025,1 hPa 0,0 l/m 0 min 0 min 0 W/m 9,7 km/h (2 Bft) 95,74 %
17.04.2023 06:44 8,9 C 8,3 C 5,0 C 96 % 1025,1 hPa 0,0 l/m 0 min 0 min 0 W/m 9,7 km/h (2 Bft) 95,74 %
17.04.2023 06:46 8,9 C 8,3 C 5,0 C 96 % 1025,1 hPa 0,0 l/m 0 min 0 min 0 W/m 12,9 km/h (3 Bft) 95,74 %
17.04.2023 06:48 8,9 C 8,3 C 5,0 C 96 % 1025,1 hPa 0,0 l/m 0 min 0 min 0 W/m 9,7 km/h (2 Bft) 93,48 %
17.04.2023 06:50 8,9 C 8,3 C 5,0 C 96 % 1025,1 hPa 0,0 l/m 0 min 0 min 2 W/m 19,3 km/h (3 Bft) 95,74 %
17.04.2023 06:52 8,8 C 8,3 C 5,0 C 96 % 1025,2 hPa 0,0 l/m 0 min 0 min 4 W/m 12,9 km/h (3 Bft) 97,87 %
17.04.2023 06:54 8,8 C 8,3 C 5,0 C 96 % 1025,2 hPa 0,0 l/m 0 min 0 min 5 W/m 12,9 km/h (3 Bft) 95,74 %
17.04.2023 06:56 8,8 C 8,3 C 5,0 C 96 % 1025,2 hPa 0,0 l/m 0 min 0 min 5 W/m 16,1 km/h (3 Bft) 95,74 %
17.04.2023 06:58 8,8 C 8,3 C 5,0 C 96 % 1025,3 hPa 0,0 l/m 0 min 0 min 7 W/m 9,7 km/h (2 Bft) 95,74 %
17.04.2023 07:00 8,8 C 8,3 C 5,0 C 97 % 1025,3 hPa 0,0 l/m 0 min 0 min 9 W/m 9,7 km/h (2 Bft) 97,83 %
17.04.2023 07:02 8,8 C 8,3 C 5,0 C 97 % 1025,3 hPa 0,0 l/m 0 min 0 min 9 W/m 12,9 km/h (3 Bft) 95,74 %
17.04.2023 07:04 8,8 C 8,3 C 5,0 C 97 % 1025,2 hPa 0,0 l/m 0 min 0 min 11 W/m 12,9 km/h (3 Bft) 95,74 %
17.04.2023 07:06 8,8 C 8,3 C 5,0 C 97 % 1025,3 hPa 0,0 l/m 0 min 0 min 11 W/m 12,9 km/h (3 Bft) 98,31 %
17.04.2023 07:08 8,8 C 8,3 C 5,0 C 97 % 1025,3 hPa 0,0 l/m 0 min 0 min 12 W/m 12,9 km/h (3 Bft) 94,29 %
17.04.2023 07:10 8,8 C 8,3 C 5,0 C 97 % 1025,3 hPa 0,0 l/m 0 min 0 min 14 W/m 6,4 km/h (2 Bft) 95,74 %
17.04.2023 07:12 8,8 C 8,3 C 5,0 C 97 % 1025,3 hPa 0,0 l/m 0 min 0 min 15 W/m 6,4 km/h (2 Bft) 95,65 %
17.04.2023 07:14 8,8 C 8,3 C 5,0 C 97 % 1025,3 hPa 0,0 l/m 0 min 0 min 16 W/m 6,4 km/h (2 Bft) 93,62 %
17.04.2023 07:16 8,8 C 8,3 C 5,0 C 97 % 1025,3 hPa 0,0 l/m 0 min 0 min 18 W/m 9,7 km/h (2 Bft) 95,74 %
17.04.2023 07:18 8,8 C 8,3 C 5,0 C 97 % 1025,3 hPa 0,0 l/m 0 min 0 min 18 W/m 9,7 km/h (2 Bft) 100,00 %
17.04.2023 07:20 8,8 C 8,3 C 5,0 C 97 % 1025,4 hPa 0,0 l/m 0 min 0 min 16 W/m 12,9 km/h (3 Bft) 97,87 %
17.04.2023 07:22 8,8 C 8,3 C 5,0 C 97 % 1025,4 hPa 0,0 l/m 0 min 0 min 16 W/m 9,7 km/h (2 Bft) 97,87 %
17.04.2023 07:24 8,8 C 8,3 C 5,0 C 97 % 1025,4 hPa 0,0 l/m 0 min 0 min 17 W/m 9,7 km/h (2 Bft) 97,87 %
17.04.2023 07:26 8,8 C 8,3 C 5,0 C 97 % 1025,4 hPa 0,0 l/m 0 min 0 min 19 W/m 12,9 km/h (3 Bft) 95,65 %
17.04.2023 07:28 8,8 C 8,3 C 5,0 C 97 % 1025,4 hPa 0,0 l/m 0 min 0 min 19 W/m 12,9 km/h (3 Bft) 97,87 %
17.04.2023 07:30 8,8 C 8,3 C 5,0 C 97 % 1025,4 hPa 0,0 l/m 0 min 0 min 18 W/m 6,4 km/h (2 Bft) 95,74 %
17.04.2023 07:32 8,8 C 8,3 C 5,6 C 97 % 1025,4 hPa 0,0 l/m 0 min 0 min 18 W/m 9,7 km/h (2 Bft) 97,87 %
17.04.2023 07:34 8,8 C 8,3 C 5,6 C 97 % 1025,4 hPa 0,0 l/m 0 min 0 min 21 W/m 6,4 km/h (2 Bft) 95,74 %
17.04.2023 07:36 8,8 C 8,3 C 5,6 C 97 % 1025,4 hPa 0,0 l/m 0 min 0 min 21 W/m 12,9 km/h (3 Bft) 97,87 %
17.04.2023 07:38 8,8 C 8,3 C 5,6 C 97 % 1025,4 hPa 0,0 l/m 0 min 0 min 19 W/m 16,1 km/h (3 Bft) 97,83 %
17.04.2023 07:40 8,8 C 8,3 C 5,6 C 97 % 1025,5 hPa 0,0 l/m 0 min 0 min 19 W/m 9,7 km/h (2 Bft) 97,87 %
17.04.2023 07:42 8,8 C 8,3 C 5,6 C 97 % 1025,5 hPa 0,0 l/m 0 min 0 min 19 W/m 9,7 km/h (2 Bft) 97,87 %
17.04.2023 07:44 8,8 C 8,3 C 5,6 C 97 % 1025,5 hPa 0,0 l/m 0 min 0 min 19 W/m 9,7 km/h (2 Bft) 93,62 %
17.04.2023 07:46 8,8 C 8,3 C 5,6 C 97 % 1025,4 hPa 0,0 l/m 0 min 0 min 21 W/m 9,7 km/h (2 Bft) 100,00 %
17.04.2023 07:48 8,8 C 8,3 C 5,6 C 97 % 1025,4 hPa 0,0 l/m 0 min 0 min 27 W/m 6,4 km/h (2 Bft) 95,74 %
17.04.2023 07:50 8,8 C 8,3 C 5,6 C 97 % 1025,5 hPa 0,0 l/m 0 min 0 min 28 W/m 9,7 km/h (2 Bft) 52,38 %
17.04.2023 07:52 8,8 C 8,3 C 5,6 C 97 % 1025,5 hPa 0,0 l/m 0 min 0 min 30 W/m 6,4 km/h (2 Bft) 100,00 %
17.04.2023 07:54 8,8 C 8,3 C 5,6 C 97 % 1025,5 hPa 0,0 l/m 0 min 0 min 25 W/m 12,9 km/h (3 Bft) 100,00 %
17.04.2023 07:56 8,8 C 8,3 C 5,6 C 97 % 1025,5 hPa 0,0 l/m 0 min 0 min 26 W/m 9,7 km/h (2 Bft) 100,00 %
17.04.2023 07:58 8,8 C 8,3 C 5,6 C 97 % 1025,5 hPa 0,0 l/m 0 min 0 min 25 W/m 12,9 km/h (3 Bft) 95,74 %
17.04.2023 08:00 8,8 C 8,3 C 5,6 C 96 % 1025,5 hPa 0,0 l/m 0 min 0 min 25 W/m 9,7 km/h (2 Bft) 97,87 %
17.04.2023 08:02 8,8 C 8,3 C 5,6 C 96 % 1025,5 hPa 0,0 l/m 0 min 0 min 26 W/m 9,7 km/h (2 Bft) 100,00 %
17.04.2023 08:04 8,8 C 8,3 C 5,6 C 96 % 1025,5 hPa 0,0 l/m 0 min 0 min 29 W/m 9,7 km/h (2 Bft) 100,00 %
17.04.2023 08:06 8,8 C 8,3 C 5,6 C 96 % 1025,5 hPa 0,0 l/m 0 min 0 min 32 W/m 9,7 km/h (2 Bft) 100,00 %
17.04.2023 08:08 8,8 C 8,3 C 5,6 C 96 % 1025,5 hPa 0,0 l/m 0 min 0 min 30 W/m 6,4 km/h (2 Bft) 100,00 %
17.04.2023 08:10 8,8 C 8,3 C 5,6 C 96 % 1025,5 hPa 0,0 l/m 0 min 0 min 38 W/m 9,7 km/h (2 Bft) 97,87 %
17.04.2023 08:12 8,8 C 8,3 C 5,6 C 96 % 1025,5 hPa 0,0 l/m 0 min 0 min 42 W/m 9,7 km/h (2 Bft) 100,00 %
17.04.2023 08:14 8,9 C 8,3 C 5,6 C 96 % 1025,6 hPa 0,0 l/m 0 min 0 min 41 W/m 12,9 km/h (3 Bft) 100,00 %
17.04.2023 08:16 8,9 C 8,3 C 5,6 C 96 % 1025,6 hPa 0,0 l/m 0 min 0 min 51 W/m 16,1 km/h (3 Bft) 100,00 %
17.04.2023 08:18 8,9 C 8,3 C 5,6 C 96 % 1025,5 hPa 0,0 l/m 0 min 0 min 52 W/m 9,7 km/h (2 Bft) 100,00 %
17.04.2023 08:20 8,9 C 8,9 C 5,6 C 96 % 1025,5 hPa 0,0 l/m 0 min 0 min 57 W/m 9,7 km/h (2 Bft) 100,00 %
17.04.2023 08:22 8,9 C 8,9 C 5,6 C 96 % 1025,5 hPa 0,0 l/m 0 min 0 min 59 W/m 9,7 km/h (2 Bft) 97,87 %
17.04.2023 08:24 8,9 C 8,9 C 5,6 C 96 % 1025,6 hPa 0,0 l/m 0 min 0 min 64 W/m 16,1 km/h (3 Bft) 97,87 %
17.04.2023 08:26 8,9 C 8,9 C 5,6 C 96 % 1025,6 hPa 0,0 l/m 0 min 0 min 66 W/m 12,9 km/h (3 Bft) 97,87 %
17.04.2023 08:28 9,0 C 8,9 C 5,6 C 96 % 1025,6 hPa 0,0 l/m 0 min 0 min 68 W/m 9,7 km/h (2 Bft) 95,74 %
17.04.2023 08:30 9,0 C 8,9 C 5,6 C 96 % 1025,6 hPa 0,0 l/m 0 min 0 min 72 W/m 9,7 km/h (2 Bft) 97,83 %
17.04.2023 08:32 9,1 C 8,9 C 5,6 C 96 % 1025,6 hPa 0,0 l/m 0 min 0 min 71 W/m 12,9 km/h (3 Bft) 93,62 %
17.04.2023 08:34 9,1 C 8,9 C 5,6 C 97 % 1025,6 hPa 0,0 l/m 0 min 0 min 73 W/m 12,9 km/h (3 Bft) 97,87 %
17.04.2023 08:36 9,1 C 8,9 C 5,6 C 97 % 1025,6 hPa 0,0 l/m 0 min 0 min 73 W/m 9,7 km/h (2 Bft) 97,87 %
17.04.2023 08:38 9,1 C 8,9 C 5,6 C 97 % 1025,7 hPa 0,0 l/m 0 min 0 min 75 W/m 9,7 km/h (2 Bft) 97,87 %
17.04.2023 08:40 9,1 C 8,9 C 5,6 C 97 % 1025,6 hPa 0,0 l/m 0 min 0 min 76 W/m 6,4 km/h (2 Bft) 95,74 %
17.04.2023 08:42 9,1 C 8,9 C 5,6 C 97 % 1025,6 hPa 0,0 l/m 0 min 0 min 76 W/m 9,7 km/h (2 Bft) 95,65 %
17.04.2023 08:44 9,1 C 8,9 C 5,6 C 97 % 1025,7 hPa 0,0 l/m 0 min 0 min 71 W/m 9,7 km/h (2 Bft) 97,87 %
17.04.2023 08:46 9,1 C 8,9 C 5,6 C 96 % 1025,7 hPa 0,0 l/m 0 min 0 min 64 W/m 9,7 km/h (2 Bft) 97,87 %
17.04.2023 08:48 9,1 C 8,9 C 5,6 C 96 % 1025,7 hPa 0,0 l/m 0 min 0 min 55 W/m 12,9 km/h (3 Bft) 97,87 %
17.04.2023 08:50 9,1 C 8,9 C 5,6 C 96 % 1025,8 hPa 0,0 l/m 0 min 0 min 49 W/m 9,7 km/h (2 Bft) 98,18 %
17.04.2023 08:52 9,1 C 8,9 C 5,6 C 96 % 1025,8 hPa 0,0 l/m 0 min 0 min 45 W/m 6,4 km/h (2 Bft) 98,00 %
17.04.2023 08:54 9,1 C 8,9 C 5,6 C 96 % 1025,8 hPa 0,0 l/m 0 min 0 min 46 W/m 9,7 km/h (2 Bft) 100,00 %
17.04.2023 08:56 9,1 C 8,9 C 5,6 C 96 % 1025,9 hPa 0,0 l/m 0 min 0 min 47 W/m 9,7 km/h (2 Bft) 97,83 %
17.04.2023 08:58 9,1 C 8,9 C 5,6 C 96 % 1025,9 hPa 0,0 l/m 0 min 0 min 47 W/m 12,9 km/h (3 Bft) 100,00 %
17.04.2023 09:00 9,2 C 8,9 C 5,6 C 96 % 1025,9 hPa 0,0 l/m 0 min 0 min 51 W/m 16,1 km/h (3 Bft) 100,00 %
17.04.2023 09:02 9,1 C 8,9 C 5,6 C 96 % 1025,9 hPa 0,0 l/m 0 min 0 min 56 W/m 12,9 km/h (3 Bft) 97,87 %
17.04.2023 09:04 9,1 C 8,9 C 5,6 C 96 % 1025,9 hPa 0,0 l/m 0 min 0 min 62 W/m 6,4 km/h (2 Bft) 97,87 %
17.04.2023 09:06 9,2 C 8,9 C 5,6 C 96 % 1025,9 hPa 0,0 l/m 0 min 0 min 63 W/m 9,7 km/h (2 Bft) 97,87 %
17.04.2023 09:08 9,2 C 8,9 C 5,6 C 96 % 1025,9 hPa 0,0 l/m 0 min 0 min 60 W/m 9,7 km/h (2 Bft) 100,00 %
17.04.2023 09:10 9,2 C 8,9 C 6,1 C 96 % 1026,0 hPa 0,0 l/m 0 min 0 min 63 W/m 12,9 km/h (3 Bft) 100,00 %
17.04.2023 09:12 9,2 C 8,9 C 6,1 C 96 % 1026,0 hPa 0,0 l/m 0 min 0 min 70 W/m 12,9 km/h (3 Bft) 97,87 %
17.04.2023 09:14 9,2 C 8,9 C 6,1 C 96 % 1026,0 hPa 0,0 l/m 0 min 0 min 68 W/m 9,7 km/h (2 Bft) 97,87 %
17.04.2023 09:16 9,2 C 8,9 C 6,1 C 96 % 1026,1 hPa 0,0 l/m 0 min 0 min 68 W/m 9,7 km/h (2 Bft) 95,74 %
17.04.2023 09:18 9,2 C 9,4 C 6,1 C 96 % 1026,0 hPa 0,0 l/m 0 min 0 min 82 W/m 9,7 km/h (2 Bft) 95,74 %
17.04.2023 09:20 9,2 C 9,4 C 6,1 C 96 % 1026,1 hPa 0,0 l/m 0 min 0 min 91 W/m 12,9 km/h (3 Bft) 97,83 %
17.04.2023 09:22 9,3 C 9,4 C 6,1 C 96 % 1026,1 hPa 0,0 l/m 0 min 0 min 92 W/m 16,1 km/h (3 Bft) 95,74 %
17.04.2023 09:24 9,3 C 9,4 C 6,1 C 96 % 1026,2 hPa 0,0 l/m 0 min 0 min 96 W/m 16,1 km/h (3 Bft) 97,87 %
17.04.2023 09:26 9,3 C 9,4 C 6,1 C 96 % 1026,2 hPa 0,0 l/m 0 min 0 min 98 W/m 12,9 km/h (3 Bft) 95,74 %
17.04.2023 09:28 9,3 C 9,4 C 6,1 C 96 % 1026,2 hPa 0,0 l/m 0 min 0 min 98 W/m 6,4 km/h (2 Bft) 95,74 %
17.04.2023 09:30 9,3 C 9,4 C 6,1 C 96 % 1026,2 hPa 0,0 l/m 0 min 0 min 96 W/m 12,9 km/h (3 Bft) 95,74 %
17.04.2023 09:32 9,3 C 9,4 C 6,1 C 96 % 1026,2 hPa 0,0 l/m 0 min 0 min 102 W/m 12,9 km/h (3 Bft) 97,83 %
17.04.2023 09:34 9,4 C 9,4 C 6,1 C 96 % 1026,2 hPa 0,0 l/m 0 min 0 min 112 W/m 9,7 km/h (2 Bft) 95,74 %
17.04.2023 09:36 9,4 C 9,4 C 6,1 C 96 % 1026,1 hPa 0,0 l/m 0 min 0 min 122 W/m 9,7 km/h (2 Bft) 95,74 %
17.04.2023 09:38 9,4 C 9,4 C 6,1 C 96 % 1026,2 hPa 0,0 l/m 0 min 0 min 127 W/m 6,4 km/h (2 Bft) 97,87 %
17.04.2023 09:40 9,5 C 10,0 C 6,7 C 96 % 1026,2 hPa 0,0 l/m 0 min 0 min 125 W/m 16,1 km/h (3 Bft) 95,74 %
17.04.2023 09:42 9,5 C 10,0 C 6,7 C 95 % 1026,1 hPa 0,0 l/m 0 min 0 min 123 W/m 9,7 km/h (2 Bft) 97,87 %
17.04.2023 09:44 9,6 C 10,0 C 6,7 C 96 % 1026,2 hPa 0,0 l/m 0 min 0 min 115 W/m 6,4 km/h (2 Bft) 95,74 %
17.04.2023 09:46 9,6 C 10,0 C 6,7 C 96 % 1026,2 hPa 0,0 l/m 0 min 0 min 113 W/m 12,9 km/h (3 Bft) 95,65 %
17.04.2023 09:48 9,6 C 10,0 C 6,7 C 95 % 1026,2 hPa 0,0 l/m 0 min 0 min 121 W/m 9,7 km/h (2 Bft) 97,87 %
17.04.2023 09:50 9,6 C 10,0 C 6,7 C 95 % 1026,2 hPa 0,0 l/m 0 min 0 min 119 W/m 12,9 km/h (3 Bft) 97,87 %
17.04.2023 09:52 9,6 C 10,0 C 6,7 C 95 % 1026,2 hPa 0,0 l/m 0 min 0 min 111 W/m 9,7 km/h (2 Bft) 95,74 %
17.04.2023 09:54 9,7 C 10,0 C 6,7 C 95 % 1026,2 hPa 0,0 l/m 0 min 0 min 112 W/m 9,7 km/h (2 Bft) 95,74 %
17.04.2023 09:56 9,7 C 10,0 C 6,7 C 95 % 1026,2 hPa 0,0 l/m 0 min 0 min 121 W/m 16,1 km/h (3 Bft) 91,49 %
17.04.2023 09:58 9,7 C 10,0 C 6,7 C 95 % 1026,2 hPa 0,0 l/m 0 min 0 min 129 W/m 16,1 km/h (3 Bft) 93,48 %
17.04.2023 10:00 9,7 C 10,0 C 6,7 C 95 % 1026,2 hPa 0,0 l/m 0 min 0 min 140 W/m 16,1 km/h (3 Bft) 95,74 %
17.04.2023 10:02 9,8 C 10,0 C 6,7 C 95 % 1026,2 hPa 0,0 l/m 0 min 0 min 142 W/m 16,1 km/h (3 Bft) 95,74 %
17.04.2023 10:04 9,8 C 10,0 C 6,7 C 94 % 1026,2 hPa 0,0 l/m 0 min 0 min 158 W/m 19,3 km/h (3 Bft) 95,74 %
17.04.2023 10:06 9,8 C 10,6 C 6,7 C 94 % 1026,3 hPa 0,0 l/m 0 min 0 min 167 W/m 22,5 km/h (4 Bft) 97,87 %
17.04.2023 10:08 9,9 C 10,6 C 7,2 C 94 % 1026,2 hPa 0,0 l/m 0 min 0 min 189 W/m 12,9 km/h (3 Bft) 100,00 %
17.04.2023 10:10 9,9 C 10,6 C 7,2 C 94 % 1026,2 hPa 0,0 l/m 0 min 0 min 200 W/m 19,3 km/h (3 Bft) 95,65 %
17.04.2023 10:12 10,0 C 10,6 C 7,2 C 94 % 1026,2 hPa 0,0 l/m 0 min 0 min 204 W/m 16,1 km/h (3 Bft) 97,87 %
17.04.2023 10:14 10,0 C 10,6 C 7,2 C 93 % 1026,3 hPa 0,0 l/m 0 min 0 min 170 W/m 9,7 km/h (2 Bft) 97,87 %
17.04.2023 10:16 10,1 C 10,6 C 7,2 C 93 % 1026,3 hPa 0,0 l/m 0 min 0 min 148 W/m 22,5 km/h (4 Bft) 93,62 %
17.04.2023 10:18 10,1 C 10,6 C 7,2 C 93 % 1026,3 hPa 0,0 l/m 0 min 0 min 170 W/m 16,1 km/h (3 Bft) 95,74 %
17.04.2023 10:20 10,1 C 10,6 C 7,2 C 93 % 1026,3 hPa 0,0 l/m 0 min 0 min 169 W/m 19,3 km/h (3 Bft) 95,74 %
17.04.2023 10:22 10,2 C 10,6 C 7,2 C 92 % 1026,4 hPa 0,0 l/m 0 min 0 min 155 W/m 22,5 km/h (4 Bft) 93,48 %
17.04.2023 10:24 10,2 C 10,6 C 7,2 C 92 % 1026,4 hPa 0,0 l/m 0 min 0 min 107 W/m 12,9 km/h (3 Bft) 95,74 %
17.04.2023 10:26 10,2 C 10,6 C 6,7 C 92 % 1026,4 hPa 0,0 l/m 0 min 0 min 92 W/m 19,3 km/h (3 Bft) 95,74 %
17.04.2023 10:28 10,2 C 10,0 C 6,7 C 92 % 1026,4 hPa 0,0 l/m 0 min 0 min 104 W/m 12,9 km/h (3 Bft) 100,00 %
17.04.2023 10:30 10,2 C 10,0 C 6,7 C 91 % 1026,4 hPa 0,0 l/m 0 min 0 min 112 W/m 22,5 km/h (4 Bft) 93,62 %
17.04.2023 10:32 10,2 C 10,0 C 6,7 C 91 % 1026,4 hPa 0,0 l/m 0 min 0 min 104 W/m 9,7 km/h (2 Bft) 95,74 %
17.04.2023 10:34 10,2 C 10,0 C 6,7 C 91 % 1026,4 hPa 0,0 l/m 0 min 0 min 118 W/m 12,9 km/h (3 Bft) 95,65 %
17.04.2023 10:36 10,2 C 10,6 C 6,7 C 91 % 1026,4 hPa 0,0 l/m 0 min 0 min 138 W/m 9,7 km/h (2 Bft) 93,62 %
17.04.2023 10:38 10,2 C 10,6 C 7,2 C 91 % 1026,5 hPa 0,0 l/m 0 min 0 min 134 W/m 9,7 km/h (2 Bft) 95,74 %
17.04.2023 10:40 10,3 C 10,6 C 7,2 C 91 % 1026,5 hPa 0,0 l/m 0 min 0 min 135 W/m 12,9 km/h (3 Bft) 97,87 %
17.04.2023 10:42 10,3 C 10,6 C 7,2 C 91 % 1026,5 hPa 0,0 l/m 0 min 0 min 153 W/m 12,9 km/h (3 Bft) 97,87 %
17.04.2023 10:44 10,3 C 11,1 C 7,2 C 91 % 1026,4 hPa 0,0 l/m 0 min 0 min 238 W/m 12,9 km/h (3 Bft) 97,87 %
17.04.2023 10:46 10,4 C 11,7 C 7,8 C 91 % 1026,5 hPa 0,0 l/m 2 min 0 min 344 W/m 16,1 km/h (3 Bft) 97,87 %
17.04.2023 10:48 10,5 C 12,2 C 7,8 C 91 % 1026,5 hPa 0,0 l/m 2 min 0 min 299 W/m 12,9 km/h (3 Bft) 95,65 %
17.04.2023 10:50 10,6 C 11,7 C 7,8 C 91 % 1026,5 hPa 0,0 l/m 0 min 0 min 204 W/m 16,1 km/h (3 Bft) 97,87 %
17.04.2023 10:52 10,6 C 11,7 C 7,8 C 90 % 1026,5 hPa 0,0 l/m 0 min 0 min 180 W/m 19,3 km/h (3 Bft) 100,00 %
17.04.2023 10:54 10,7 C 11,7 C 7,8 C 90 % 1026,5 hPa 0,0 l/m 0 min 0 min 143 W/m 12,9 km/h (3 Bft) 97,87 %
17.04.2023 10:56 10,7 C 11,7 C 7,8 C 90 % 1026,5 hPa 0,0 l/m 0 min 0 min 168 W/m 12,9 km/h (3 Bft) 100,00 %
17.04.2023 10:58 10,7 C 11,7 C 7,8 C 90 % 1026,5 hPa 0,0 l/m 0 min 0 min 218 W/m 12,9 km/h (3 Bft) 100,00 %
17.04.2023 11:00 10,8 C 11,7 C 7,8 C 90 % 1026,5 hPa 0,0 l/m 0 min 0 min 191 W/m 9,7 km/h (2 Bft) 100,00 %
17.04.2023 11:02 10,8 C 11,7 C 7,8 C 90 % 1026,5 hPa 0,0 l/m 0 min 0 min 163 W/m 12,9 km/h (3 Bft) 95,65 %
17.04.2023 11:04 10,8 C 11,1 C 7,8 C 89 % 1026,5 hPa 0,0 l/m 0 min 0 min 133 W/m 12,9 km/h (3 Bft) 100,00 %
17.04.2023 11:06 10,8 C 11,1 C 7,8 C 89 % 1026,5 hPa 0,0 l/m 0 min 0 min 151 W/m 12,9 km/h (3 Bft) 100,00 %
17.04.2023 11:08 10,8 C 11,7 C 7,8 C 89 % 1026,5 hPa 0,0 l/m 0 min 0 min 280 W/m 9,7 km/h (2 Bft) 100,00 %
17.04.2023 11:10 10,9 C 12,2 C 8,3 C 89 % 1026,5 hPa 0,0 l/m 2 min 0 min 332 W/m 12,9 km/h (3 Bft) 100,00 %
17.04.2023 11:12 11,0 C 12,8 C 8,3 C 89 % 1026,5 hPa 0,0 l/m 0 min 0 min 292 W/m 6,4 km/h (2 Bft) 100,00 %
17.04.2023 11:14 11,1 C 12,8 C 8,3 C 89 % 1026,5 hPa 0,0 l/m 0 min 0 min 245 W/m 12,9 km/h (3 Bft) 100,00 %
17.04.2023 11:16 11,2 C 12,2 C 8,3 C 88 % 1026,5 hPa 0,0 l/m 0 min 0 min 219 W/m 16,1 km/h (3 Bft) 100,00 %
17.04.2023 11:18 11,2 C 12,2 C 8,3 C 88 % 1026,5 hPa 0,0 l/m 0 min 0 min 255 W/m 12,9 km/h (3 Bft) 97,87 %
17.04.2023 11:20 11,2 C 12,2 C 8,3 C 88 % 1026,5 hPa 0,0 l/m 0 min 0 min 237 W/m 12,9 km/h (3 Bft) 100,00 %
17.04.2023 11:22 11,3 C 12,2 C 8,3 C 88 % 1026,5 hPa 0,0 l/m 0 min 0 min 194 W/m 9,7 km/h (2 Bft) 100,00 %
17.04.2023 11:24 11,3 C 12,2 C 7,8 C 88 % 1026,5 hPa 0,0 l/m 0 min 0 min 173 W/m 25,7 km/h (4 Bft) 100,00 %
17.04.2023 11:26 11,3 C 11,7 C 7,8 C 87 % 1026,5 hPa 0,0 l/m 0 min 0 min 228 W/m 9,7 km/h (2 Bft) 97,83 %
17.04.2023 11:28 11,3 C 12,2 C 8,3 C 87 % 1026,6 hPa 0,0 l/m 0 min 0 min 269 W/m 6,4 km/h (2 Bft) 100,00 %
17.04.2023 11:30 11,4 C 12,2 C 8,3 C 87 % 1026,5 hPa 0,0 l/m 0 min 0 min 307 W/m 16,1 km/h (3 Bft) 100,00 %
17.04.2023 11:32 11,4 C 12,8 C 8,9 C 87 % 1026,6 hPa 0,0 l/m 2 min 0 min 348 W/m 9,7 km/h (2 Bft) 100,00 %
17.04.2023 11:34 11,5 C 13,3 C 8,9 C 87 % 1026,6 hPa 0,0 l/m 2 min 0 min 392 W/m 9,7 km/h (2 Bft) 100,00 %
17.04.2023 11:36 11,6 C 13,9 C 9,4 C 87 % 1026,6 hPa 0,0 l/m 2 min 0 min 362 W/m 6,4 km/h (2 Bft) 100,00 %
17.04.2023 11:38 11,7 C 13,3 C 9,4 C 87 % 1026,7 hPa 0,0 l/m 0 min 0 min 316 W/m 16,1 km/h (3 Bft) 100,00 %
17.04.2023 11:40 11,8 C 13,3 C 8,9 C 86 % 1026,7 hPa 0,0 l/m 0 min 0 min 312 W/m 12,9 km/h (3 Bft) 100,00 %
17.04.2023 11:42 11,8 C 13,3 C 8,9 C 86 % 1026,6 hPa 0,0 l/m 0 min 0 min 295 W/m 9,7 km/h (2 Bft) 100,00 %
17.04.2023 11:44 11,8 C 13,3 C 8,9 C 86 % 1026,6 hPa 0,0 l/m 0 min 0 min 294 W/m 12,9 km/h (3 Bft) 100,00 %
17.04.2023 11:46 11,9 C 13,3 C 8,9 C 85 % 1026,7 hPa 0,0 l/m 0 min 0 min 232 W/m 16,1 km/h (3 Bft) 95,74 %
17.04.2023 11:48 11,9 C 12,8 C 8,9 C 85 % 1026,6 hPa 0,0 l/m 0 min 0 min 225 W/m 19,3 km/h (3 Bft) 100,00 %
17.04.2023 11:50 11,8 C 12,8 C 8,9 C 84 % 1026,7 hPa 0,0 l/m 0 min 0 min 255 W/m 22,5 km/h (4 Bft) 100,00 %
17.04.2023 11:52 11,8 C 12,8 C 8,9 C 85 % 1026,7 hPa 0,0 l/m 0 min 0 min 309 W/m 19,3 km/h (3 Bft) 100,00 %
17.04.2023 11:54 11,9 C 13,3 C 8,9 C 85 % 1026,7 hPa 0,0 l/m 2 min 0 min 350 W/m 16,1 km/h (3 Bft) 97,87 %
17.04.2023 11:56 11,9 C 13,9 C 9,4 C 85 % 1026,7 hPa 0,0 l/m 0 min 0 min 340 W/m 6,4 km/h (2 Bft) 100,00 %
17.04.2023 11:58 12,1 C 13,9 C 9,4 C 85 % 1026,6 hPa 0,0 l/m 0 min 0 min 313 W/m 9,7 km/h (2 Bft) 100,00 %
17.04.2023 12:00 12,1 C 13,9 C 9,4 C 84 % 1026,6 hPa 0,0 l/m 0 min 0 min 317 W/m 25,7 km/h (4 Bft) 97,87 %
17.04.2023 12:02 12,1 C 13,9 C 9,4 C 84 % 1026,7 hPa 0,0 l/m 2 min 0 min 378 W/m 22,5 km/h (4 Bft) 97,87 %
17.04.2023 12:04 12,2 C 13,9 C 9,4 C 83 % 1026,5 hPa 0,0 l/m 2 min 0 min 409 W/m 12,9 km/h (3 Bft) 100,00 %
17.04.2023 12:07 12,3 C 14,4 C 9,4 C 83 % 1026,5 hPa 0,0 l/m 3 min 0 min 363 W/m 12,9 km/h (3 Bft) 98,63 %
17.04.2023 12:10 12,4 C 15,0 C 9,4 C 83 % 1026,5 hPa 0,0 l/m 3 min 0 min 446 W/m 6,4 km/h (2 Bft) 98,74 %
17.04.2023 12:12 12,5 C 16,1 C 10,0 C 84 % 1026,5 hPa 0,0 l/m 2 min 0 min 494 W/m 12,9 km/h (3 Bft) 98,39 %
17.04.2023 12:14 12,6 C 16,7 C 10,6 C 83 % 1026,4 hPa 0,0 l/m 2 min 0 min 541 W/m 22,5 km/h (4 Bft) 100,00 %
17.04.2023 12:16 12,8 C 16,7 C 11,1 C 83 % 1026,4 hPa 0,0 l/m 2 min 0 min 520 W/m 16,1 km/h (3 Bft) 100,00 %
17.04.2023 12:18 12,9 C 16,7 C 11,1 C 83 % 1026,4 hPa 0,0 l/m 2 min 0 min 417 W/m 12,9 km/h (3 Bft) 97,87 %
17.04.2023 12:20 13,0 C 15,6 C 10,6 C 81 % 1026,4 hPa 0,0 l/m 0 min 0 min 322 W/m 22,5 km/h (4 Bft) 97,87 %
17.04.2023 12:22 13,0 C 15,6 C 10,6 C 81 % 1026,4 hPa 0,0 l/m 0 min 0 min 328 W/m 12,9 km/h (3 Bft) 97,87 %
17.04.2023 12:24 13,1 C 15,6 C 10,0 C 81 % 1026,4 hPa 0,0 l/m 0 min 0 min 333 W/m 16,1 km/h (3 Bft) 97,87 %
17.04.2023 12:26 13,1 C 15,6 C 10,0 C 80 % 1026,4 hPa 0,0 l/m 0 min 0 min 353 W/m 12,9 km/h (3 Bft) 95,74 %
17.04.2023 12:28 13,1 C 16,7 C 10,6 C 80 % 1026,4 hPa 0,0 l/m 2 min 0 min 407 W/m 12,9 km/h (3 Bft) 93,62 %
17.04.2023 12:30 13,2 C 18,3 C 11,7 C 80 % 1026,3 hPa 0,0 l/m 2 min 0 min 411 W/m 19,3 km/h (3 Bft) 95,65 %
17.04.2023 12:32 13,3 C 20,6 C 12,8 C 79 % 1026,3 hPa 0,0 l/m 2 min 0 min 781 W/m 16,1 km/h (3 Bft) 95,74 %
17.04.2023 12:34 13,4 C 19,4 C 12,8 C 78 % 1026,3 hPa 0,0 l/m 2 min 0 min 666 W/m 16,1 km/h (3 Bft) 95,74 %
17.04.2023 12:36 13,6 C 20,6 C 13,9 C 77 % 1026,3 hPa 0,0 l/m 2 min 0 min 704 W/m 19,3 km/h (3 Bft) 91,49 %
17.04.2023 12:38 13,8 C 21,7 C 14,4 C 78 % 1026,3 hPa 0,0 l/m 2 min 0 min 777 W/m 12,9 km/h (3 Bft) 87,23 %
17.04.2023 12:40 14,1 C 21,7 C 14,4 C 77 % 1026,3 hPa 0,0 l/m 2 min 0 min 973 W/m 19,3 km/h (3 Bft) 93,62 %
17.04.2023 12:42 14,2 C 22,2 C 14,4 C 76 % 1026,2 hPa 0,0 l/m 2 min 0 min 953 W/m 12,9 km/h (3 Bft) 93,48 %
17.04.2023 12:44 14,3 C 20,6 C 13,3 C 74 % 1026,3 hPa 0,0 l/m 2 min 0 min 630 W/m 12,9 km/h (3 Bft) 93,62 %
17.04.2023 12:46 14,3 C 18,9 C 12,8 C 73 % 1026,3 hPa 0,0 l/m 2 min 0 min 390 W/m 25,7 km/h (4 Bft) 89,36 %
17.04.2023 12:48 14,3 C 19,4 C 12,8 C 73 % 1026,2 hPa 0,0 l/m 2 min 0 min 394 W/m 16,1 km/h (3 Bft) 93,62 %
17.04.2023 12:50 14,4 C 20,0 C 12,8 C 73 % 1026,2 hPa 0,0 l/m 2 min 0 min 609 W/m 16,1 km/h (3 Bft) 93,62 %
17.04.2023 12:52 14,6 C 20,6 C 12,8 C 73 % 1026,2 hPa 0,0 l/m 2 min 0 min 702 W/m 16,1 km/h (3 Bft) 93,62 %
17.04.2023 12:54 14,7 C 21,7 C 12,8 C 73 % 1026,2 hPa 0,0 l/m 2 min 0 min 687 W/m 16,1 km/h (3 Bft) 91,49 %
17.04.2023 12:56 14,7 C 19,4 C 12,2 C 71 % 1026,2 hPa 0,0 l/m 2 min 0 min 724 W/m 25,7 km/h (4 Bft) 93,48 %
17.04.2023 12:58 14,7 C 18,9 C 11,7 C 69 % 1026,2 hPa 0,0 l/m 2 min 0 min 463 W/m 22,5 km/h (4 Bft) 91,49 %
17.04.2023 13:00 14,7 C 20,6 C 11,7 C 70 % 1026,1 hPa 0,0 l/m 2 min 0 min 543 W/m 16,1 km/h (3 Bft) 95,74 %
17.04.2023 13:02 14,8 C 21,7 C 11,7 C 70 % 1026,1 hPa 0,0 l/m 2 min 0 min 735 W/m 12,9 km/h (3 Bft) 95,74 %
17.04.2023 13:04 14,9 C 22,2 C 11,7 C 72 % 1026,1 hPa 0,0 l/m 2 min 0 min 753 W/m 22,5 km/h (4 Bft) 95,74 %
17.04.2023 13:06 15,1 C 23,3 C 12,2 C 72 % 1026,0 hPa 0,0 l/m 2 min 0 min 802 W/m 16,1 km/h (3 Bft) 93,62 %
17.04.2023 13:08 15,2 C 22,8 C 11,7 C 70 % 1026,1 hPa 0,0 l/m 2 min 0 min 767 W/m 22,5 km/h (4 Bft) 95,74 %
17.04.2023 13:10 15,2 C 22,8 C 11,7 C 70 % 1026,1 hPa 0,0 l/m 2 min 0 min 893 W/m 16,1 km/h (3 Bft) 91,67 %
17.04.2023 13:12 15,4 C 23,3 C 11,7 C 69 % 1026,1 hPa 0,0 l/m 2 min 0 min 874 W/m 19,3 km/h (3 Bft) 94,83 %
17.04.2023 13:14 15,5 C 23,3 C 11,7 C 68 % 1026,1 hPa 0,0 l/m 2 min 0 min 801 W/m 16,1 km/h (3 Bft) 91,49 %
17.04.2023 13:16 15,6 C 23,3 C 11,7 C 68 % 1026,1 hPa 0,0 l/m 2 min 0 min 797 W/m 16,1 km/h (3 Bft) 97,87 %
17.04.2023 13:18 15,7 C 25,0 C 12,2 C 67 % 1026,1 hPa 0,0 l/m 2 min 0 min 816 W/m 16,1 km/h (3 Bft) 95,74 %
17.04.2023 13:20 15,8 C 25,0 C 12,2 C 67 % 1026,1 hPa 0,0 l/m 2 min 0 min 836 W/m 19,3 km/h (3 Bft) 97,14 %
17.04.2023 13:22 15,8 C 25,6 C 12,2 C 67 % 1026,1 hPa 0,0 l/m 2 min 0 min 894 W/m 9,7 km/h (2 Bft) 98,28 %
17.04.2023 13:24 15,9 C 23,9 C 12,8 C 67 % 1026,0 hPa 0,0 l/m 2 min 0 min 864 W/m 12,9 km/h (3 Bft) 97,22 %
17.04.2023 13:26 15,9 C 22,8 C 12,2 C 66 % 1026,0 hPa 0,0 l/m 2 min 0 min 452 W/m 19,3 km/h (3 Bft) 95,65 %
17.04.2023 13:28 15,9 C 23,9 C 12,2 C 67 % 1026,1 hPa 0,0 l/m 2 min 0 min 892 W/m 16,1 km/h (3 Bft) 96,61 %
17.04.2023 13:30 15,9 C 25,0 C 12,8 C 64 % 1026,1 hPa 0,0 l/m 2 min 0 min 854 W/m 12,9 km/h (3 Bft) 97,14 %
17.04.2023 13:32 16,1 C 25,6 C 12,8 C 65 % 1026,1 hPa 0,0 l/m 2 min 0 min 844 W/m 12,9 km/h (3 Bft) 98,31 %
17.04.2023 13:34 16,2 C 25,6 C 13,3 C 65 % 1026,1 hPa 0,0 l/m 2 min 0 min 876 W/m 16,1 km/h (3 Bft) 97,14 %
17.04.2023 13:36 16,3 C 26,1 C 13,3 C 65 % 1026,1 hPa 0,0 l/m 2 min 0 min 866 W/m 9,7 km/h (2 Bft) 97,87 %
17.04.2023 13:38 16,4 C 25,0 C 13,3 C 62 % 1026,1 hPa 0,0 l/m 2 min 0 min 828 W/m 25,7 km/h (4 Bft) 96,00 %
17.04.2023 13:40 16,3 C 24,4 C 13,3 C 61 % 1026,1 hPa 0,0 l/m 2 min 0 min 798 W/m 22,5 km/h (4 Bft) 97,67 %
17.04.2023 13:42 16,4 C 24,4 C 13,3 C 61 % 1026,1 hPa 0,0 l/m 2 min 0 min 749 W/m 9,7 km/h (2 Bft) 98,04 %
17.04.2023 13:44 16,4 C 24,4 C 12,8 C 62 % 1026,1 hPa 0,0 l/m 2 min 0 min 748 W/m 19,3 km/h (3 Bft) 95,74 %
17.04.2023 13:46 16,4 C 25,0 C 12,8 C 61 % 1026,0 hPa 0,0 l/m 2 min 0 min 792 W/m 12,9 km/h (3 Bft) 93,62 %
17.04.2023 13:48 16,6 C 25,6 C 12,8 C 61 % 1026,0 hPa 0,0 l/m 2 min 0 min 833 W/m 9,7 km/h (2 Bft) 97,87 %
17.04.2023 13:50 16,7 C 26,7 C 13,3 C 63 % 1026,1 hPa 0,0 l/m 2 min 0 min 854 W/m 9,7 km/h (2 Bft) 100,00 %
17.04.2023 13:52 16,8 C 26,7 C 12,8 C 62 % 1026,0 hPa 0,0 l/m 2 min 0 min 860 W/m 12,9 km/h (3 Bft) 100,00 %
17.04.2023 13:54 16,9 C 26,7 C 13,3 C 62 % 1026,0 hPa 0,0 l/m 2 min 0 min 880 W/m 12,9 km/h (3 Bft) 100,00 %
17.04.2023 13:56 16,9 C 26,1 C 13,3 C 60 % 1026,1 hPa 0,0 l/m 2 min 0 min 867 W/m 16,1 km/h (3 Bft) 100,00 %
17.04.2023 13:58 17,0 C 24,4 C 12,8 C 60 % 1026,0 hPa 0,0 l/m 2 min 0 min 861 W/m 22,5 km/h (4 Bft) 100,00 %
17.04.2023 14:00 16,9 C 23,3 C 12,8 C 59 % 1026,1 hPa 0,0 l/m 2 min 0 min 816 W/m 16,1 km/h (3 Bft) 100,00 %
17.04.2023 14:02 16,9 C 23,3 C 12,8 C 60 % 1026,0 hPa 0,0 l/m 2 min 0 min 791 W/m 16,1 km/h (3 Bft) 100,00 %
17.04.2023 14:04 16,8 C 23,9 C 12,8 C 60 % 1026,0 hPa 0,0 l/m 2 min 0 min 865 W/m 22,5 km/h (4 Bft) 100,00 %
17.04.2023 14:06 16,9 C 23,9 C 12,8 C 61 % 1026,0 hPa 0,0 l/m 2 min 0 min 894 W/m 25,7 km/h (4 Bft) 100,00 %
17.04.2023 14:08 16,9 C 24,4 C 12,8 C 61 % 1026,0 hPa 0,0 l/m 2 min 0 min 905 W/m 12,9 km/h (3 Bft) 100,00 %
17.04.2023 14:10 17,0 C 23,9 C 12,8 C 60 % 1026,0 hPa 0,0 l/m 2 min 0 min 835 W/m 16,1 km/h (3 Bft) 100,00 %
17.04.2023 14:12 17,0 C 23,9 C 12,8 C 60 % 1026,0 hPa 0,0 l/m 2 min 0 min 698 W/m 16,1 km/h (3 Bft) 100,00 %
17.04.2023 14:14 17,0 C 23,9 C 12,8 C 60 % 1026,0 hPa 0,0 l/m 2 min 0 min 760 W/m 22,5 km/h (4 Bft) 100,00 %
17.04.2023 14:16 17,1 C 25,0 C 12,8 C 61 % 1026,0 hPa 0,0 l/m 2 min 0 min 933 W/m 12,9 km/h (3 Bft) 100,00 %
17.04.2023 14:18 17,1 C 24,4 C 12,8 C 59 % 1026,1 hPa 0,0 l/m 2 min 0 min 896 W/m 19,3 km/h (3 Bft) 100,00 %
17.04.2023 14:20 17,1 C 23,3 C 12,8 C 60 % 1026,0 hPa 0,0 l/m 2 min 0 min 789 W/m 25,7 km/h (4 Bft) 97,87 %
17.04.2023 14:22 17,1 C 22,2 C 12,8 C 59 % 1026,0 hPa 0,0 l/m 2 min 0 min 654 W/m 12,9 km/h (3 Bft) 100,00 %
17.04.2023 14:24 16,9 C 21,1 C 12,8 C 59 % 1026,0 hPa 0,0 l/m 2 min 0 min 488 W/m 12,9 km/h (3 Bft) 100,00 %
17.04.2023 14:26 16,8 C 21,1 C 12,8 C 60 % 1025,9 hPa 0,0 l/m 2 min 0 min 561 W/m 16,1 km/h (3 Bft) 100,00 %
17.04.2023 14:28 16,7 C 21,1 C 12,8 C 59 % 1025,9 hPa 0,0 l/m 2 min 0 min 597 W/m 19,3 km/h (3 Bft) 97,83 %
17.04.2023 14:30 16,7 C 20,6 C 12,8 C 58 % 1026,0 hPa 0,0 l/m 2 min 0 min 609 W/m 25,7 km/h (4 Bft) 97,87 %
17.04.2023 14:32 16,6 C 21,1 C 12,8 C 58 % 1025,9 hPa 0,0 l/m 2 min 0 min 609 W/m 16,1 km/h (3 Bft) 97,87 %
17.04.2023 14:34 16,6 C 21,1 C 12,8 C 58 % 1025,9 hPa 0,0 l/m 2 min 0 min 572 W/m 16,1 km/h (3 Bft) 97,87 %
17.04.2023 14:36 16,6 C 21,1 C 12,8 C 60 % 1025,9 hPa 0,0 l/m 2 min 0 min 536 W/m 16,1 km/h (3 Bft) 97,87 %
17.04.2023 14:38 16,6 C 21,1 C 12,8 C 60 % 1025,9 hPa 0,0 l/m 2 min 0 min 495 W/m 6,4 km/h (2 Bft) 97,87 %
17.04.2023 14:40 16,6 C 20,6 C 12,8 C 60 % 1025,9 hPa 0,0 l/m 2 min 0 min 436 W/m 19,3 km/h (3 Bft) 95,74 %
17.04.2023 14:42 16,6 C 20,0 C 12,8 C 60 % 1025,9 hPa 0,0 l/m 2 min 0 min 414 W/m 16,1 km/h (3 Bft) 97,83 %
17.04.2023 14:44 16,5 C 19,4 C 12,2 C 61 % 1025,9 hPa 0,0 l/m 2 min 0 min 396 W/m 19,3 km/h (3 Bft) 97,87 %
17.04.2023 14:46 16,3 C 18,9 C 12,2 C 59 % 1025,9 hPa 0,0 l/m 2 min 0 min 396 W/m 16,1 km/h (3 Bft) 97,87 %
17.04.2023 14:48 16,2 C 18,9 C 11,7 C 60 % 1026,0 hPa 0,0 l/m 2 min 0 min 404 W/m 12,9 km/h (3 Bft) 97,87 %
17.04.2023 14:50 16,1 C 18,9 C 11,7 C 59 % 1026,0 hPa 0,0 l/m 2 min 0 min 458 W/m 22,5 km/h (4 Bft) 97,87 %
17.04.2023 14:52 16,0 C 19,4 C 11,7 C 60 % 1026,0 hPa 0,0 l/m 2 min 0 min 432 W/m 9,7 km/h (2 Bft) 97,87 %
17.04.2023 14:54 15,9 C 20,0 C 11,7 C 61 % 1025,9 hPa 0,0 l/m 2 min 0 min 424 W/m 19,3 km/h (3 Bft) 97,87 %
17.04.2023 14:56 15,9 C 21,1 C 11,7 C 61 % 1025,9 hPa 0,0 l/m 2 min 0 min 567 W/m 12,9 km/h (3 Bft) 97,83 %
17.04.2023 14:58 15,9 C 21,1 C 11,7 C 61 % 1025,9 hPa 0,0 l/m 2 min 0 min 593 W/m 19,3 km/h (3 Bft) 97,87 %
17.04.2023 15:00 15,9 C 21,7 C 11,7 C 59 % 1026,0 hPa 0,0 l/m 2 min 0 min 605 W/m 16,1 km/h (3 Bft) 95,74 %
17.04.2023 15:02 16,0 C 23,3 C 12,2 C 59 % 1026,0 hPa 0,0 l/m 2 min 0 min 740 W/m 16,1 km/h (3 Bft) 97,87 %
17.04.2023 15:04 16,2 C 24,4 C 12,2 C 58 % 1025,9 hPa 0,0 l/m 2 min 0 min 812 W/m 16,1 km/h (3 Bft) 100,00 %
17.04.2023 15:06 16,3 C 23,9 C 12,2 C 57 % 1025,9 hPa 0,0 l/m 2 min 0 min 795 W/m 16,1 km/h (3 Bft) 100,00 %
17.04.2023 15:08 16,4 C 24,4 C 12,8 C 59 % 1025,9 hPa 0,0 l/m 2 min 0 min 787 W/m 16,1 km/h (3 Bft) 100,00 %
17.04.2023 15:10 16,6 C 24,4 C 12,8 C 58 % 1025,9 hPa 0,0 l/m 2 min 0 min 778 W/m 12,9 km/h (3 Bft) 100,00 %
17.04.2023 15:12 16,8 C 24,4 C 12,8 C 58 % 1025,9 hPa 0,0 l/m 2 min 0 min 773 W/m 12,9 km/h (3 Bft) 100,00 %
17.04.2023 15:14 16,9 C 24,4 C 12,8 C 57 % 1025,9 hPa 0,0 l/m 2 min 0 min 768 W/m 19,3 km/h (3 Bft) 97,87 %
17.04.2023 15:16 17,0 C 25,0 C 12,8 C 59 % 1025,8 hPa 0,0 l/m 2 min 0 min 762 W/m 9,7 km/h (2 Bft) 100,00 %
17.04.2023 15:18 17,1 C 25,0 C 12,8 C 57 % 1025,7 hPa 0,0 l/m 2 min 0 min 760 W/m 12,9 km/h (3 Bft) 95,74 %
17.04.2023 15:20 17,2 C 25,0 C 12,8 C 57 % 1025,7 hPa 0,0 l/m 2 min 0 min 739 W/m 16,1 km/h (3 Bft) 97,83 %
17.04.2023 15:22 17,2 C 24,4 C 12,8 C 56 % 1025,7 hPa 0,0 l/m 2 min 0 min 652 W/m 16,1 km/h (3 Bft) 97,87 %
17.04.2023 15:24 17,2 C 24,4 C 12,8 C 57 % 1025,6 hPa 0,0 l/m 2 min 0 min 784 W/m 9,7 km/h (2 Bft) 97,87 %
17.04.2023 15:26 17,3 C 23,9 C 12,8 C 56 % 1025,7 hPa 0,0 l/m 2 min 0 min 787 W/m 25,7 km/h (4 Bft) 97,87 %
17.04.2023 15:28 17,3 C 23,9 C 13,3 C 56 % 1025,7 hPa 0,0 l/m 2 min 0 min 740 W/m 16,1 km/h (3 Bft) 97,87 %
17.04.2023 15:30 17,4 C 24,4 C 13,3 C 56 % 1025,6 hPa 0,0 l/m 2 min 0 min 760 W/m 12,9 km/h (3 Bft) 97,87 %
17.04.2023 15:32 17,4 C 23,9 C 13,3 C 54 % 1025,7 hPa 0,0 l/m 2 min 0 min 760 W/m 19,3 km/h (3 Bft) 95,74 %
17.04.2023 15:34 17,4 C 24,4 C 13,3 C 54 % 1025,6 hPa 0,0 l/m 2 min 0 min 748 W/m 12,9 km/h (3 Bft) 97,83 %
17.04.2023 15:36 17,5 C 23,9 C 13,3 C 55 % 1025,7 hPa 0,0 l/m 2 min 0 min 769 W/m 22,5 km/h (4 Bft) 97,87 %
17.04.2023 15:38 17,5 C 23,9 C 13,3 C 54 % 1025,7 hPa 0,0 l/m 2 min 0 min 756 W/m 19,3 km/h (3 Bft) 97,87 %
17.04.2023 15:40 17,5 C 22,8 C 13,3 C 53 % 1025,6 hPa 0,0 l/m 2 min 0 min 679 W/m 19,3 km/h (3 Bft) 97,87 %
17.04.2023 15:42 17,5 C 22,8 C 13,3 C 54 % 1025,6 hPa 0,0 l/m 2 min 0 min 725 W/m 16,1 km/h (3 Bft) 95,74 %
17.04.2023 15:44 17,5 C 22,2 C 13,3 C 54 % 1025,6 hPa 0,0 l/m 2 min 0 min 778 W/m 22,5 km/h (4 Bft) 97,87 %
17.04.2023 15:46 17,5 C 21,7 C 13,3 C 54 % 1025,6 hPa 0,0 l/m 2 min 0 min 790 W/m 19,3 km/h (3 Bft) 97,83 %
17.04.2023 15:48 17,5 C 22,2 C 13,3 C 54 % 1025,6 hPa 0,0 l/m 2 min 0 min 793 W/m 19,3 km/h (3 Bft) 95,92 %
17.04.2023 15:50 17,4 C 22,8 C 13,3 C 53 % 1025,6 hPa 0,0 l/m 2 min 0 min 796 W/m 32,2 km/h (5 Bft) 97,87 %
17.04.2023 15:52 17,4 C 23,3 C 13,3 C 55 % 1025,6 hPa 0,0 l/m 2 min 0 min 766 W/m 12,9 km/h (3 Bft) 95,74 %
17.04.2023 15:54 17,4 C 23,3 C 13,3 C 54 % 1025,6 hPa 0,0 l/m 2 min 0 min 762 W/m 19,3 km/h (3 Bft) 95,74 %
17.04.2023 15:56 17,4 C 23,3 C 13,3 C 54 % 1025,6 hPa 0,0 l/m 2 min 0 min 741 W/m 16,1 km/h (3 Bft) 95,74 %
17.04.2023 15:58 17,5 C 23,3 C 13,3 C 54 % 1025,6 hPa 0,0 l/m 2 min 0 min 677 W/m 19,3 km/h (3 Bft) 97,87 %
17.04.2023 16:00 17,5 C 22,8 C 13,3 C 55 % 1025,6 hPa 0,0 l/m 2 min 0 min 609 W/m 22,5 km/h (4 Bft) 97,87 %
17.04.2023 16:02 17,4 C 22,2 C 12,8 C 54 % 1025,6 hPa 0,0 l/m 2 min 0 min 610 W/m 22,5 km/h (4 Bft) 97,83 %
17.04.2023 16:04 17,4 C 22,2 C 13,3 C 55 % 1025,5 hPa 0,0 l/m 2 min 0 min 643 W/m 22,5 km/h (4 Bft) 100,00 %
17.04.2023 16:06 17,4 C 21,7 C 13,3 C 55 % 1025,6 hPa 0,0 l/m 2 min 0 min 620 W/m 16,1 km/h (3 Bft) 100,00 %
17.04.2023 16:08 17,3 C 21,7 C 13,3 C 55 % 1025,6 hPa 0,0 l/m 2 min 0 min 553 W/m 25,7 km/h (4 Bft) 97,92 %
17.04.2023 16:10 17,3 C 22,2 C 13,3 C 56 % 1025,6 hPa 0,0 l/m 2 min 0 min 686 W/m 22,5 km/h (4 Bft) 97,14 %
17.04.2023 16:12 17,4 C 22,2 C 13,3 C 55 % 1025,6 hPa 0,0 l/m 2 min 0 min 634 W/m 16,1 km/h (3 Bft) 97,87 %
17.04.2023 16:14 17,4 C 22,2 C 13,3 C 55 % 1025,6 hPa 0,0 l/m 2 min 0 min 667 W/m 25,7 km/h (4 Bft) 97,87 %
17.04.2023 16:16 17,4 C 22,2 C 13,3 C 54 % 1025,6 hPa 0,0 l/m 2 min 0 min 631 W/m 16,1 km/h (3 Bft) 97,87 %
17.04.2023 16:18 17,4 C 22,2 C 12,8 C 54 % 1025,6 hPa 0,0 l/m 2 min 0 min 668 W/m 22,5 km/h (4 Bft) 97,83 %
17.04.2023 16:20 17,4 C 22,2 C 13,3 C 54 % 1025,5 hPa 0,0 l/m 2 min 0 min 692 W/m 16,1 km/h (3 Bft) 97,87 %
17.04.2023 16:22 17,4 C 21,1 C 13,3 C 55 % 1025,5 hPa 0,0 l/m 2 min 0 min 715 W/m 25,7 km/h (4 Bft) 97,96 %
17.04.2023 16:24 17,3 C 21,1 C 13,3 C 55 % 1025,5 hPa 0,0 l/m 2 min 0 min 708 W/m 19,3 km/h (3 Bft) 97,87 %
17.04.2023 16:26 17,4 C 21,7 C 13,9 C 58 % 1025,6 hPa 0,0 l/m 2 min 0 min 682 W/m 9,7 km/h (2 Bft) 97,87 %
17.04.2023 16:28 17,4 C 21,1 C 13,3 C 56 % 1025,5 hPa 0,0 l/m 2 min 0 min 295 W/m 16,1 km/h (3 Bft) 97,87 %
17.04.2023 16:30 17,3 C 21,1 C 13,3 C 55 % 1025,6 hPa 0,0 l/m 2 min 0 min 655 W/m 25,7 km/h (4 Bft) 97,83 %
17.04.2023 16:32 17,2 C 21,7 C 13,3 C 56 % 1025,5 hPa 0,0 l/m 2 min 0 min 404 W/m 12,9 km/h (3 Bft) 95,74 %
17.04.2023 16:34 17,2 C 22,8 C 13,3 C 57 % 1025,5 hPa 0,0 l/m 2 min 0 min 581 W/m 16,1 km/h (3 Bft) 97,87 %
17.04.2023 16:36 17,2 C 21,1 C 13,3 C 55 % 1025,4 hPa 0,0 l/m 2 min 0 min 575 W/m 25,7 km/h (4 Bft) 93,62 %
17.04.2023 16:38 17,2 C 20,0 C 13,3 C 55 % 1025,5 hPa 0,0 l/m 2 min 0 min 350 W/m 19,3 km/h (3 Bft) 95,74 %
17.04.2023 16:40 17,1 C 21,1 C 13,3 C 55 % 1025,4 hPa 0,0 l/m 2 min 0 min 513 W/m 16,1 km/h (3 Bft) 95,74 %
17.04.2023 16:42 17,1 C 20,0 C 13,3 C 55 % 1025,4 hPa 0,0 l/m 2 min 0 min 602 W/m 16,1 km/h (3 Bft) 95,74 %
17.04.2023 16:44 17,1 C 19,4 C 13,3 C 54 % 1025,4 hPa 0,0 l/m 0 min 0 min 230 W/m 16,1 km/h (3 Bft) 93,48 %
17.04.2023 16:46 17,0 C 18,3 C 12,8 C 55 % 1025,4 hPa 0,0 l/m 0 min 0 min 220 W/m 16,1 km/h (3 Bft) 95,74 %
17.04.2023 16:48 16,8 C 17,8 C 12,8 C 55 % 1025,4 hPa 0,0 l/m 0 min 0 min 202 W/m 16,1 km/h (3 Bft) 95,74 %
17.04.2023 16:50 16,7 C 17,2 C 12,2 C 55 % 1025,3 hPa 0,0 l/m 0 min 0 min 197 W/m 16,1 km/h (3 Bft) 95,74 %
17.04.2023 16:52 16,6 C 17,2 C 12,2 C 56 % 1025,3 hPa 0,0 l/m 0 min 0 min 193 W/m 12,9 km/h (3 Bft) 95,74 %
17.04.2023 16:54 16,5 C 16,7 C 12,2 C 56 % 1025,4 hPa 0,0 l/m 0 min 0 min 183 W/m 16,1 km/h (3 Bft) 95,74 %
17.04.2023 16:56 16,4 C 16,7 C 12,2 C 54 % 1025,3 hPa 0,0 l/m 0 min 0 min 150 W/m 16,1 km/h (3 Bft) 95,74 %
17.04.2023 16:58 16,3 C 16,7 C 12,2 C 55 % 1025,4 hPa 0,0 l/m 0 min 0 min 126 W/m 19,3 km/h (3 Bft) 95,65 %
17.04.2023 17:00 16,2 C 16,1 C 11,7 C 56 % 1025,4 hPa 0,0 l/m 0 min 0 min 115 W/m 19,3 km/h (3 Bft) 97,87 %
17.04.2023 17:02 16,1 C 16,1 C 11,7 C 56 % 1025,4 hPa 0,0 l/m 0 min 0 min 109 W/m 16,1 km/h (3 Bft) 97,87 %
17.04.2023 17:04 15,9 C 15,6 C 11,7 C 58 % 1025,4 hPa 0,0 l/m 0 min 0 min 103 W/m 9,7 km/h (2 Bft) 97,92 %
17.04.2023 17:06 15,8 C 15,6 C 11,1 C 58 % 1025,4 hPa 0,0 l/m 0 min 0 min 95 W/m 12,9 km/h (3 Bft) 97,87 %
17.04.2023 17:08 15,7 C 15,6 C 11,1 C 57 % 1025,4 hPa 0,0 l/m 0 min 0 min 92 W/m 22,5 km/h (4 Bft) 97,87 %
17.04.2023 17:10 15,6 C 15,0 C 11,1 C 57 % 1025,4 hPa 0,0 l/m 0 min 0 min 100 W/m 19,3 km/h (3 Bft) 97,83 %
17.04.2023 17:12 15,6 C 16,1 C 11,1 C 56 % 1025,4 hPa 0,0 l/m 0 min 0 min 105 W/m 16,1 km/h (3 Bft) 95,74 %
17.04.2023 17:14 15,5 C 17,8 C 11,7 C 55 % 1025,3 hPa 0,0 l/m 2 min 0 min 417 W/m 9,7 km/h (2 Bft) 100,00 %
17.04.2023 17:16 15,6 C 18,9 C 11,7 C 55 % 1025,3 hPa 0,0 l/m 2 min 0 min 515 W/m 12,9 km/h (3 Bft) 97,87 %
17.04.2023 17:18 15,8 C 19,4 C 12,2 C 55 % 1025,3 hPa 0,0 l/m 2 min 0 min 526 W/m 25,7 km/h (4 Bft) 100,00 %
17.04.2023 17:20 15,9 C 19,4 C 12,8 C 53 % 1025,3 hPa 0,0 l/m 2 min 0 min 537 W/m 19,3 km/h (3 Bft) 100,00 %
17.04.2023 17:22 16,1 C 20,0 C 12,8 C 53 % 1025,2 hPa 0,0 l/m 2 min 0 min 525 W/m 25,7 km/h (4 Bft) 100,00 %
17.04.2023 17:24 16,2 C 20,6 C 12,8 C 53 % 1025,2 hPa 0,0 l/m 2 min 0 min 502 W/m 22,5 km/h (4 Bft) 100,00 %
17.04.2023 17:26 16,4 C 21,1 C 13,3 C 54 % 1025,2 hPa 0,0 l/m 2 min 0 min 481 W/m 29,0 km/h (5 Bft) 95,74 %
17.04.2023 17:28 16,4 C 20,6 C 13,3 C 51 % 1025,2 hPa 0,0 l/m 2 min 0 min 474 W/m 25,7 km/h (4 Bft) 100,00 %
17.04.2023 17:30 16,6 C 20,6 C 13,3 C 51 % 1025,2 hPa 0,0 l/m 2 min 0 min 428 W/m 25,7 km/h (4 Bft) 97,87 %
17.04.2023 17:32 16,6 C 20,6 C 13,3 C 53 % 1025,2 hPa 0,0 l/m 2 min 0 min 456 W/m 12,9 km/h (3 Bft) 100,00 %
17.04.2023 17:34 16,7 C 21,7 C 13,3 C 53 % 1025,2 hPa 0,0 l/m 2 min 0 min 451 W/m 16,1 km/h (3 Bft) 100,00 %
17.04.2023 17:36 16,7 C 21,7 C 13,3 C 53 % 1025,1 hPa 0,0 l/m 2 min 0 min 443 W/m 16,1 km/h (3 Bft) 100,00 %
17.04.2023 17:38 16,8 C 20,6 C 13,3 C 51 % 1025,1 hPa 0,0 l/m 2 min 0 min 437 W/m 16,1 km/h (3 Bft) 100,00 %
17.04.2023 17:40 16,7 C 20,6 C 13,3 C 51 % 1025,1 hPa 0,0 l/m 2 min 0 min 454 W/m 19,3 km/h (3 Bft) 100,00 %
17.04.2023 17:42 16,7 C 20,6 C 13,3 C 53 % 1025,2 hPa 0,0 l/m 2 min 0 min 464 W/m 19,3 km/h (3 Bft) 97,87 %
17.04.2023 17:44 16,6 C 19,4 C 12,8 C 52 % 1025,1 hPa 0,0 l/m 2 min 0 min 253 W/m 19,3 km/h (3 Bft) 100,00 %
17.04.2023 17:46 16,5 C 18,9 C 12,8 C 53 % 1025,2 hPa 0,0 l/m 0 min 0 min 165 W/m 9,7 km/h (2 Bft) 100,00 %
17.04.2023 17:48 16,4 C 17,8 C 12,2 C 52 % 1025,1 hPa 0,0 l/m 0 min 0 min 158 W/m 12,9 km/h (3 Bft) 100,00 %
17.04.2023 17:50 16,3 C 17,2 C 12,2 C 54 % 1025,1 hPa 0,0 l/m 0 min 0 min 129 W/m 16,1 km/h (3 Bft) 97,83 %
17.04.2023 17:52 16,2 C 16,7 C 12,2 C 54 % 1025,1 hPa 0,0 l/m 0 min 0 min 111 W/m 19,3 km/h (3 Bft) 100,00 %
17.04.2023 17:54 16,1 C 15,6 C 11,7 C 54 % 1025,2 hPa 0,0 l/m 0 min 0 min 95 W/m 19,3 km/h (3 Bft) 97,87 %
17.04.2023 17:56 15,9 C 15,6 C 11,1 C 54 % 1025,2 hPa 0,0 l/m 0 min 0 min 83 W/m 16,1 km/h (3 Bft) 97,87 %
17.04.2023 17:58 15,8 C 15,0 C 11,1 C 54 % 1025,2 hPa 0,0 l/m 0 min 0 min 76 W/m 16,1 km/h (3 Bft) 100,00 %
17.04.2023 18:00 15,7 C 15,0 C 11,1 C 55 % 1025,2 hPa 0,0 l/m 0 min 0 min 77 W/m 16,1 km/h (3 Bft) 100,00 %
17.04.2023 18:02 15,6 C 15,6 C 11,1 C 54 % 1025,2 hPa 0,0 l/m 0 min 0 min 95 W/m 22,5 km/h (4 Bft) 100,00 %
17.04.2023 18:04 15,6 C 17,2 C 11,1 C 55 % 1025,2 hPa 0,0 l/m 2 min 0 min 336 W/m 12,9 km/h (3 Bft) 100,00 %
17.04.2023 18:07 15,7 C 18,9 C 12,2 C 56 % 1025,2 hPa 0,0 l/m 3 min 0 min 410 W/m 19,3 km/h (3 Bft) 97,26 %
17.04.2023 18:08 15,8 C 19,4 C 12,2 C 56 % 1025,2 hPa 0,0 l/m 1 min 0 min 434 W/m 16,1 km/h (3 Bft) 95,65 %
17.04.2023 18:12 16,0 C 19,4 C 12,8 C 54 % 1025,1 hPa 0,0 l/m 4 min 0 min 416 W/m 19,3 km/h (3 Bft) 92,59 %
17.04.2023 18:14 16,1 C 19,4 C 12,8 C 53 % 1025,1 hPa 0,0 l/m 2 min 0 min 415 W/m 16,1 km/h (3 Bft) 97,87 %
17.04.2023 18:16 16,2 C 18,9 C 12,8 C 52 % 1025,1 hPa 0,0 l/m 2 min 0 min 398 W/m 19,3 km/h (3 Bft) 95,74 %
17.04.2023 18:18 16,2 C 18,9 C 12,8 C 52 % 1025,1 hPa 0,0 l/m 2 min 0 min 346 W/m 12,9 km/h (3 Bft) 97,87 %
17.04.2023 18:20 16,3 C 18,9 C 12,8 C 53 % 1025,1 hPa 0,0 l/m 2 min 0 min 239 W/m 12,9 km/h (3 Bft) 97,83 %
17.04.2023 18:22 16,3 C 17,8 C 12,8 C 53 % 1025,1 hPa 0,0 l/m 0 min 0 min 117 W/m 16,1 km/h (3 Bft) 97,87 %
17.04.2023 18:24 16,3 C 16,7 C 12,2 C 52 % 1025,1 hPa 0,0 l/m 0 min 0 min 101 W/m 19,3 km/h (3 Bft) 95,74 %
17.04.2023 18:26 16,2 C 16,1 C 11,7 C 53 % 1025,1 hPa 0,0 l/m 0 min 0 min 93 W/m 19,3 km/h (3 Bft) 95,74 %
17.04.2023 18:28 16,1 C 16,1 C 11,7 C 54 % 1025,1 hPa 0,0 l/m 0 min 0 min 110 W/m 12,9 km/h (3 Bft) 95,74 %
17.04.2023 18:30 15,9 C 16,7 C 11,7 C 55 % 1025,1 hPa 0,0 l/m 2 min 0 min 192 W/m 9,7 km/h (2 Bft) 97,87 %
17.04.2023 18:32 15,9 C 16,7 C 11,7 C 54 % 1025,1 hPa 0,0 l/m 0 min 0 min 121 W/m 12,9 km/h (3 Bft) 97,87 %
17.04.2023 18:34 15,8 C 16,1 C 11,1 C 55 % 1025,0 hPa 0,0 l/m 0 min 0 min 104 W/m 6,4 km/h (2 Bft) 97,83 %
17.04.2023 18:36 15,7 C 16,1 C 11,1 C 55 % 1025,0 hPa 0,0 l/m 2 min 0 min 152 W/m 12,9 km/h (3 Bft) 95,74 %
17.04.2023 18:38 15,6 C 16,1 C 11,1 C 55 % 1025,0 hPa 0,0 l/m 2 min 0 min 227 W/m 9,7 km/h (2 Bft) 97,87 %
17.04.2023 18:40 15,6 C 16,1 C 11,1 C 56 % 1025,1 hPa 0,0 l/m 0 min 0 min 92 W/m 6,4 km/h (2 Bft) 95,74 %
17.04.2023 18:42 15,5 C 15,6 C 11,1 C 58 % 1025,1 hPa 0,0 l/m 0 min 0 min 79 W/m 9,7 km/h (2 Bft) 97,87 %
17.04.2023 18:44 15,4 C 15,6 C 11,1 C 58 % 1025,1 hPa 0,0 l/m 0 min 0 min 66 W/m 9,7 km/h (2 Bft) 95,74 %
17.04.2023 18:46 15,3 C 15,0 C 10,6 C 58 % 1025,1 hPa 0,0 l/m 0 min 0 min 57 W/m 6,4 km/h (2 Bft) 95,83 %
17.04.2023 18:48 15,2 C 14,4 C 10,6 C 56 % 1025,1 hPa 0,0 l/m 0 min 0 min 54 W/m 9,7 km/h (2 Bft) 95,65 %
17.04.2023 18:50 15,2 C 14,4 C 10,6 C 57 % 1025,1 hPa 0,0 l/m 0 min 0 min 56 W/m 6,4 km/h (2 Bft) 91,49 %
17.04.2023 18:52 15,1 C 14,4 C 10,6 C 57 % 1025,2 hPa 0,0 l/m 0 min 0 min 54 W/m 6,4 km/h (2 Bft) 93,62 %
17.04.2023 18:54 14,9 C 14,4 C 10,6 C 56 % 1025,1 hPa 0,0 l/m 0 min 0 min 58 W/m 6,4 km/h (2 Bft) 97,87 %
17.04.2023 18:56 14,8 C 14,4 C 10,6 C 56 % 1025,1 hPa 0,0 l/m 0 min 0 min 64 W/m 6,4 km/h (2 Bft) 95,74 %
17.04.2023 18:58 14,8 C 14,4 C 10,6 C 57 % 1025,1 hPa 0,0 l/m 0 min 0 min 65 W/m 9,7 km/h (2 Bft) 91,49 %
17.04.2023 19:00 14,7 C 14,4 C 10,6 C 58 % 1025,1 hPa 0,0 l/m 0 min 0 min 65 W/m 9,7 km/h (2 Bft) 93,62 %
17.04.2023 19:02 14,7 C 14,4 C 10,6 C 58 % 1025,1 hPa 0,0 l/m 0 min 0 min 64 W/m 6,4 km/h (2 Bft) 91,30 %
17.04.2023 19:04 14,7 C 14,4 C 10,6 C 58 % 1025,1 hPa 0,0 l/m 0 min 0 min 60 W/m 9,7 km/h (2 Bft) 95,74 %
17.04.2023 19:06 14,6 C 14,4 C 10,6 C 58 % 1025,1 hPa 0,0 l/m 0 min 0 min 57 W/m 9,7 km/h (2 Bft) 95,74 %
17.04.2023 19:08 14,6 C 14,4 C 10,6 C 58 % 1025,1 hPa 0,0 l/m 0 min 0 min 49 W/m 6,4 km/h (2 Bft) 95,83 %
17.04.2023 19:10 14,6 C 14,4 C 10,0 C 57 % 1025,0 hPa 0,0 l/m 0 min 0 min 47 W/m 9,7 km/h (2 Bft) 93,62 %
17.04.2023 19:12 14,6 C 13,9 C 10,0 C 56 % 1025,0 hPa 0,0 l/m 0 min 0 min 47 W/m 6,4 km/h (2 Bft) 95,74 %
17.04.2023 19:14 14,6 C 13,9 C 10,0 C 57 % 1025,1 hPa 0,0 l/m 0 min 0 min 47 W/m 9,7 km/h (2 Bft) 95,74 %
17.04.2023 19:16 14,6 C 13,9 C 10,0 C 58 % 1025,1 hPa 0,0 l/m 0 min 0 min 49 W/m 6,4 km/h (2 Bft) 95,65 %
17.04.2023 19:18 14,6 C 13,9 C 10,0 C 58 % 1025,1 hPa 0,0 l/m 0 min 0 min 51 W/m 3,2 km/h (1 Bft) 95,74 %
17.04.2023 19:20 14,5 C 13,9 C 10,0 C 58 % 1025,1 hPa 0,0 l/m 0 min 0 min 51 W/m 9,7 km/h (2 Bft) 91,49 %
17.04.2023 19:22 14,5 C 13,9 C 10,0 C 57 % 1025,1 hPa 0,0 l/m 0 min 0 min 49 W/m 16,1 km/h (3 Bft) 98,00 %
17.04.2023 19:24 14,4 C 13,9 C 10,0 C 58 % 1025,1 hPa 0,0 l/m 0 min 0 min 47 W/m 9,7 km/h (2 Bft) 97,87 %
17.04.2023 19:26 14,4 C 13,9 C 10,0 C 57 % 1025,0 hPa 0,0 l/m 0 min 0 min 46 W/m 6,4 km/h (2 Bft) 95,74 %
17.04.2023 19:28 14,4 C 13,9 C 10,0 C 58 % 1025,1 hPa 0,0 l/m 0 min 0 min 45 W/m 6,4 km/h (2 Bft) 93,62 %
17.04.2023 19:30 14,4 C 13,9 C 10,0 C 58 % 1025,1 hPa 0,0 l/m 0 min 0 min 44 W/m 12,9 km/h (3 Bft) 97,83 %
17.04.2023 19:32 14,3 C 13,9 C 10,0 C 58 % 1025,1 hPa 0,0 l/m 0 min 0 min 42 W/m 6,4 km/h (2 Bft) 97,87 %
17.04.2023 19:34 14,3 C 13,9 C 10,0 C 58 % 1025,1 hPa 0,0 l/m 0 min 0 min 41 W/m 3,2 km/h (1 Bft) 97,87 %
17.04.2023 19:36 14,3 C 13,9 C 10,0 C 58 % 1025,1 hPa 0,0 l/m 0 min 0 min 40 W/m 6,4 km/h (2 Bft) 100,00 %
17.04.2023 19:38 14,3 C 13,9 C 10,0 C 57 % 1025,1 hPa 0,0 l/m 0 min 0 min 39 W/m 9,7 km/h (2 Bft) 100,00 %
17.04.2023 19:40 14,3 C 13,9 C 9,4 C 58 % 1025,1 hPa 0,0 l/m 0 min 0 min 39 W/m 3,2 km/h (1 Bft) 100,00 %
17.04.2023 19:42 14,3 C 13,9 C 9,4 C 58 % 1025,1 hPa 0,0 l/m 0 min 0 min 37 W/m 9,7 km/h (2 Bft) 97,83 %
17.04.2023 19:44 14,3 C 13,3 C 9,4 C 58 % 1025,0 hPa 0,0 l/m 0 min 0 min 36 W/m 6,4 km/h (2 Bft) 100,00 %
17.04.2023 19:46 14,3 C 13,3 C 9,4 C 58 % 1025,0 hPa 0,0 l/m 0 min 0 min 34 W/m 6,4 km/h (2 Bft) 95,74 %
17.04.2023 19:48 14,3 C 13,3 C 9,4 C 59 % 1025,1 hPa 0,0 l/m 0 min 0 min 33 W/m 6,4 km/h (2 Bft) 100,00 %
17.04.2023 19:50 14,2 C 13,3 C 9,4 C 59 % 1025,1 hPa 0,0 l/m 0 min 0 min 32 W/m 6,4 km/h (2 Bft) 100,00 %
17.04.2023 19:52 14,2 C 13,3 C 9,4 C 59 % 1025,1 hPa 0,0 l/m 0 min 0 min 32 W/m 6,4 km/h (2 Bft) 100,00 %
17.04.2023 19:54 14,1 C 13,3 C 9,4 C 59 % 1025,1 hPa 0,0 l/m 0 min 0 min 30 W/m 12,9 km/h (3 Bft) 100,00 %
17.04.2023 19:56 14,1 C 12,8 C 9,4 C 59 % 1025,1 hPa 0,0 l/m 0 min 0 min 29 W/m 6,4 km/h (2 Bft) 97,83 %
17.04.2023 19:58 14,0 C 12,8 C 9,4 C 59 % 1025,1 hPa 0,0 l/m 0 min 0 min 27 W/m 3,2 km/h (1 Bft) 95,74 %
17.04.2023 20:00 14,0 C 12,8 C 8,9 C 60 % 1025,2 hPa 0,0 l/m 0 min 0 min 26 W/m 3,2 km/h (1 Bft) 89,36 %
17.04.2023 20:02 13,9 C 12,8 C 8,9 C 59 % 1025,1 hPa 0,0 l/m 0 min 0 min 25 W/m 0,0 km/h (0 Bft) 68,09 %
17.04.2023 20:04 13,9 C 12,8 C 8,9 C 60 % 1025,1 hPa 0,0 l/m 0 min 0 min 25 W/m 0,0 km/h (0 Bft) 100,00 %
17.04.2023 20:06 13,9 C 12,8 C 8,9 C 61 % 1025,1 hPa 0,0 l/m 0 min 0 min 23 W/m 0,0 km/h (0 Bft) 100,00 %
17.04.2023 20:08 13,8 C 12,8 C 8,9 C 60 % 1025,1 hPa 0,0 l/m 0 min 0 min 20 W/m 0,0 km/h (0 Bft) 100,00 %
17.04.2023 20:10 13,8 C 12,8 C 8,9 C 60 % 1025,1 hPa 0,0 l/m 0 min 0 min 19 W/m 0,0 km/h (0 Bft) 100,00 %
17.04.2023 20:12 13,7 C 12,8 C 8,9 C 60 % 1025,1 hPa 0,0 l/m 0 min 0 min 17 W/m 0,0 km/h (0 Bft) 97,87 %
17.04.2023 20:14 13,7 C 12,2 C 8,9 C 60 % 1025,1 hPa 0,0 l/m 0 min 0 min 15 W/m 0,0 km/h (0 Bft) 97,87 %
17.04.2023 20:16 13,7 C 12,2 C 8,9 C 60 % 1025,1 hPa 0,0 l/m 0 min 0 min 14 W/m 0,0 km/h (0 Bft) 97,87 %
17.04.2023 20:18 13,7 C 12,2 C 8,9 C 60 % 1025,2 hPa 0,0 l/m 0 min 0 min 12 W/m 0,0 km/h (0 Bft) 100,00 %
17.04.2023 20:20 13,6 C 12,2 C 8,3 C 60 % 1025,2 hPa 0,0 l/m 0 min 0 min 11 W/m 0,0 km/h (0 Bft) 100,00 %
17.04.2023 20:22 13,6 C 12,2 C 8,3 C 60 % 1025,2 hPa 0,0 l/m 0 min 0 min 10 W/m 0,0 km/h (0 Bft) 100,00 %
17.04.2023 20:24 13,6 C 12,2 C 8,3 C 60 % 1025,2 hPa 0,0 l/m 0 min 0 min 9 W/m 0,0 km/h (0 Bft) 100,00 %
17.04.2023 20:26 13,6 C 12,2 C 8,3 C 62 % 1025,3 hPa 0,0 l/m 0 min 0 min 7 W/m 0,0 km/h (0 Bft) 97,87 %
17.04.2023 20:28 13,5 C 12,2 C 8,3 C 61 % 1025,3 hPa 0,0 l/m 0 min 0 min 7 W/m 0,0 km/h (0 Bft) 100,00 %
17.04.2023 20:30 13,4 C 11,7 C 8,3 C 62 % 1025,2 hPa 0,0 l/m 0 min 0 min 5 W/m 0,0 km/h (0 Bft) 100,00 %
17.04.2023 20:32 13,4 C 11,7 C 7,8 C 62 % 1025,3 hPa 0,0 l/m 0 min 0 min 5 W/m 0,0 km/h (0 Bft) 100,00 %
17.04.2023 20:34 13,4 C 11,7 C 7,8 C 63 % 1025,3 hPa 0,0 l/m 0 min 0 min 3 W/m 0,0 km/h (0 Bft) 100,00 %
17.04.2023 20:36 13,3 C 11,7 C 7,8 C 63 % 1025,3 hPa 0,0 l/m 0 min 0 min 0 W/m 0,0 km/h (0 Bft) 100,00 %
17.04.2023 20:38 13,3 C 11,7 C 7,8 C 62 % 1025,3 hPa 0,0 l/m 0 min 0 min 0 W/m 0,0 km/h (0 Bft) 95,74 %
17.04.2023 20:40 13,3 C 11,7 C 7,8 C 62 % 1025,3 hPa 0,0 l/m 0 min 0 min 0 W/m 0,0 km/h (0 Bft) 97,87 %
17.04.2023 20:42 13,2 C 11,1 C 7,8 C 63 % 1025,3 hPa 0,0 l/m 0 min 0 min 0 W/m 0,0 km/h (0 Bft) 97,87 %
17.04.2023 20:44 13,2 C 11,1 C 7,8 C 63 % 1025,3 hPa 0,0 l/m 0 min 0 min 0 W/m 0,0 km/h (0 Bft) 97,87 %
17.04.2023 20:46 13,1 C 11,1 C 7,8 C 63 % 1025,3 hPa 0,0 l/m 0 min 0 min 0 W/m 0,0 km/h (0 Bft) 95,74 %
17.04.2023 20:48 13,0 C 11,1 C 7,8 C 62 % 1025,3 hPa 0,0 l/m 0 min 0 min 0 W/m 0,0 km/h (0 Bft) 95,74 %
17.04.2023 20:50 12,9 C 11,1 C 7,8 C 63 % 1025,4 hPa 0,0 l/m 0 min 0 min 0 W/m 0,0 km/h (0 Bft) 95,65 %
17.04.2023 20:52 12,8 C 11,1 C 7,8 C 62 % 1025,4 hPa 0,0 l/m 0 min 0 min 0 W/m 0,0 km/h (0 Bft) 97,87 %
17.04.2023 20:54 12,8 C 11,7 C 7,8 C 62 % 1025,4 hPa 0,0 l/m 0 min 0 min 0 W/m 0,0 km/h (0 Bft) 97,87 %
17.04.2023 20:56 12,8 C 11,7 C 7,8 C 62 % 1025,4 hPa 0,0 l/m 0 min 0 min 0 W/m 0,0 km/h (0 Bft) 97,87 %
17.04.2023 20:58 12,7 C 11,7 C 7,8 C 62 % 1025,4 hPa 0,0 l/m 0 min 0 min 0 W/m 3,2 km/h (1 Bft) 95,74 %
17.04.2023 21:00 12,7 C 11,7 C 7,8 C 62 % 1025,4 hPa 0,0 l/m 0 min 0 min 0 W/m 3,2 km/h (1 Bft) 95,74 %
17.04.2023 21:02 12,7 C 11,7 C 7,8 C 63 % 1025,5 hPa 0,0 l/m 0 min 0 min 0 W/m 3,2 km/h (1 Bft) 95,74 %
17.04.2023 21:04 12,7 C 12,2 C 7,8 C 62 % 1025,4 hPa 0,0 l/m 0 min 0 min 0 W/m 6,4 km/h (2 Bft) 95,65 %
17.04.2023 21:06 12,6 C 11,7 C 7,8 C 63 % 1025,4 hPa 0,0 l/m 0 min 0 min 0 W/m 3,2 km/h (1 Bft) 95,74 %
17.04.2023 21:08 12,6 C 11,7 C 7,8 C 64 % 1025,5 hPa 0,0 l/m 0 min 0 min 0 W/m 3,2 km/h (1 Bft) 91,49 %
17.04.2023 21:10 12,6 C 11,7 C 7,2 C 65 % 1025,4 hPa 0,0 l/m 0 min 0 min 0 W/m 0,0 km/h (0 Bft) 95,74 %
17.04.2023 21:12 12,6 C 11,1 C 7,2 C 65 % 1025,4 hPa 0,0 l/m 0 min 0 min 0 W/m 0,0 km/h (0 Bft) 95,74 %
17.04.2023 21:14 12,6 C 11,1 C 7,2 C 65 % 1025,4 hPa 0,0 l/m 0 min 0 min 0 W/m 0,0 km/h (0 Bft) 95,74 %
17.04.2023 21:16 12,5 C 11,1 C 7,2 C 65 % 1025,4 hPa 0,0 l/m 0 min 0 min 0 W/m 0,0 km/h (0 Bft) 95,12 %
17.04.2023 21:18 12,5 C 11,1 C 7,2 C 65 % 1025,4 hPa 0,0 l/m 0 min 0 min 0 W/m 0,0 km/h (0 Bft) 93,62 %
17.04.2023 21:20 12,5 C 11,1 C 7,2 C 66 % 1025,4 hPa 0,0 l/m 0 min 0 min 0 W/m 0,0 km/h (0 Bft) 94,34 %
17.04.2023 21:22 12,4 C 11,1 C 6,7 C 66 % 1025,4 hPa 0,0 l/m 0 min 0 min 0 W/m 0,0 km/h (0 Bft) 95,74 %
17.04.2023 21:24 12,4 C 11,1 C 6,7 C 66 % 1025,4 hPa 0,0 l/m 0 min 0 min 0 W/m 0,0 km/h (0 Bft) 91,49 %
17.04.2023 21:26 12,4 C 10,6 C 6,7 C 66 % 1025,4 hPa 0,0 l/m 0 min 0 min 0 W/m 0,0 km/h (0 Bft) 95,74 %
17.04.2023 21:28 12,4 C 10,6 C 6,7 C 67 % 1025,5 hPa 0,0 l/m 0 min 0 min 0 W/m 0,0 km/h (0 Bft) 94,74 %
17.04.2023 21:30 12,4 C 10,6 C 6,7 C 67 % 1025,5 hPa 0,0 l/m 0 min 0 min 0 W/m 0,0 km/h (0 Bft) 94,00 %
17.04.2023 21:32 12,3 C 10,6 C 6,7 C 67 % 1025,5 hPa 0,0 l/m 0 min 0 min 0 W/m 0,0 km/h (0 Bft) 95,65 %
17.04.2023 21:34 12,3 C 10,6 C 6,7 C 67 % 1025,5 hPa 0,0 l/m 0 min 0 min 0 W/m 0,0 km/h (0 Bft) 97,87 %
17.04.2023 21:36 12,2 C 10,6 C 6,1 C 68 % 1025,4 hPa 0,0 l/m 0 min 0 min 0 W/m 0,0 km/h (0 Bft) 97,87 %
17.04.2023 21:38 12,2 C 10,6 C 6,1 C 68 % 1025,5 hPa 0,0 l/m 0 min 0 min 0 W/m 3,2 km/h (1 Bft) 95,83 %
17.04.2023 21:40 12,1 C 10,6 C 6,1 C 68 % 1025,5 hPa 0,0 l/m 0 min 0 min 0 W/m 0,0 km/h (0 Bft) 100,00 %
17.04.2023 21:42 12,1 C 10,0 C 6,1 C 69 % 1025,5 hPa 0,0 l/m 0 min 0 min 0 W/m 0,0 km/h (0 Bft) 95,74 %
17.04.2023 21:44 12,0 C 10,0 C 6,1 C 69 % 1025,4 hPa 0,0 l/m 0 min 0 min 0 W/m 0,0 km/h (0 Bft) 97,87 %
17.04.2023 21:46 11,9 C 10,0 C 6,1 C 69 % 1025,4 hPa 0,0 l/m 0 min 0 min 0 W/m 0,0 km/h (0 Bft) 97,87 %
17.04.2023 21:48 11,9 C 10,0 C 6,1 C 69 % 1025,4 hPa 0,0 l/m 0 min 0 min 0 W/m 6,4 km/h (2 Bft) 95,74 %
17.04.2023 21:50 11,9 C 10,0 C 6,1 C 69 % 1025,5 hPa 0,0 l/m 0 min 0 min 0 W/m 3,2 km/h (1 Bft) 93,62 %
17.04.2023 21:52 11,8 C 10,0 C 6,1 C 69 % 1025,5 hPa 0,0 l/m 0 min 0 min 0 W/m 0,0 km/h (0 Bft) 95,74 %
17.04.2023 21:54 11,8 C 10,0 C 6,1 C 69 % 1025,4 hPa 0,0 l/m 0 min 0 min 0 W/m 3,2 km/h (1 Bft) 100,00 %
17.04.2023 21:56 11,7 C 10,0 C 6,1 C 69 % 1025,4 hPa 0,0 l/m 0 min 0 min 0 W/m 3,2 km/h (1 Bft) 97,83 %
17.04.2023 21:58 11,7 C 10,0 C 6,1 C 69 % 1025,4 hPa 0,0 l/m 0 min 0 min 0 W/m 0,0 km/h (0 Bft) 95,74 %
17.04.2023 22:00 11,7 C 10,6 C 6,1 C 68 % 1025,4 hPa 0,0 l/m 0 min 0 min 0 W/m 6,4 km/h (2 Bft) 97,87 %
17.04.2023 22:02 11,6 C 10,6 C 6,1 C 68 % 1025,4 hPa 0,0 l/m 0 min 0 min 0 W/m 3,2 km/h (1 Bft) 97,87 %
17.04.2023 22:04 11,6 C 10,6 C 6,1 C 68 % 1025,4 hPa 0,0 l/m 0 min 0 min 0 W/m 3,2 km/h (1 Bft) 95,92 %
17.04.2023 22:06 11,6 C 10,6 C 6,1 C 68 % 1025,4 hPa 0,0 l/m 0 min 0 min 0 W/m 3,2 km/h (1 Bft) 96,55 %
17.04.2023 22:08 11,5 C 10,6 C 6,1 C 68 % 1025,4 hPa 0,0 l/m 0 min 0 min 0 W/m 0,0 km/h (0 Bft) 97,22 %
17.04.2023 22:10 11,5 C 10,6 C 6,1 C 68 % 1025,4 hPa 0,0 l/m 0 min 0 min 0 W/m 0,0 km/h (0 Bft) 97,87 %
17.04.2023 22:12 11,4 C 10,6 C 6,1 C 69 % 1025,4 hPa 0,0 l/m 0 min 0 min 0 W/m 0,0 km/h (0 Bft) 100,00 %
17.04.2023 22:14 11,4 C 10,6 C 6,1 C 69 % 1025,4 hPa 0,0 l/m 0 min 0 min 0 W/m 3,2 km/h (1 Bft) 100,00 %
17.04.2023 22:16 11,4 C 10,6 C 6,1 C 69 % 1025,3 hPa 0,0 l/m 0 min 0 min 0 W/m 3,2 km/h (1 Bft) 100,00 %
17.04.2023 22:18 11,4 C 10,6 C 6,1 C 69 % 1025,3 hPa 0,0 l/m 0 min 0 min 0 W/m 3,2 km/h (1 Bft) 95,74 %
17.04.2023 22:20 11,4 C 10,6 C 6,1 C 69 % 1025,4 hPa 0,0 l/m 0 min 0 min 0 W/m 0,0 km/h (0 Bft) 97,87 %
17.04.2023 22:22 11,3 C 10,0 C 6,1 C 69 % 1025,3 hPa 0,0 l/m 0 min 0 min 0 W/m 3,2 km/h (1 Bft) 97,87 %
17.04.2023 22:24 11,3 C 10,6 C 6,1 C 69 % 1025,4 hPa 0,0 l/m 0 min 0 min 0 W/m 6,4 km/h (2 Bft) 97,83 %
17.04.2023 22:26 11,3 C 10,6 C 6,1 C 69 % 1025,3 hPa 0,0 l/m 0 min 0 min 0 W/m 6,4 km/h (2 Bft) 97,87 %
17.04.2023 22:28 11,3 C 10,6 C 6,1 C 69 % 1025,3 hPa 0,0 l/m 0 min 0 min 0 W/m 9,7 km/h (2 Bft) 95,74 %
17.04.2023 22:30 11,3 C 10,6 C 6,1 C 70 % 1025,3 hPa 0,0 l/m 0 min 0 min 0 W/m 0,0 km/h (0 Bft) 95,74 %
17.04.2023 22:32 11,3 C 10,6 C 6,1 C 70 % 1025,3 hPa 0,0 l/m 0 min 0 min 0 W/m 0,0 km/h (0 Bft) 97,87 %
17.04.2023 22:34 11,3 C 10,6 C 6,1 C 70 % 1025,3 hPa 0,0 l/m 0 min 0 min 0 W/m 0,0 km/h (0 Bft) 95,74 %
17.04.2023 22:36 11,3 C 10,6 C 6,1 C 70 % 1025,3 hPa 0,0 l/m 0 min 0 min 0 W/m 3,2 km/h (1 Bft) 96,23 %
17.04.2023 22:38 11,2 C 10,6 C 6,1 C 70 % 1025,3 hPa 0,0 l/m 0 min 0 min 0 W/m 3,2 km/h (1 Bft) 97,92 %
17.04.2023 22:40 11,2 C 10,0 C 6,1 C 70 % 1025,3 hPa 0,0 l/m 0 min 0 min 0 W/m 0,0 km/h (0 Bft) 95,74 %
17.04.2023 22:42 11,2 C 10,0 C 6,1 C 71 % 1025,3 hPa 0,0 l/m 0 min 0 min 0 W/m 3,2 km/h (1 Bft) 97,87 %
17.04.2023 22:44 11,2 C 10,0 C 6,1 C 71 % 1025,3 hPa 0,0 l/m 0 min 0 min 0 W/m 0,0 km/h (0 Bft) 97,87 %
17.04.2023 22:46 11,2 C 10,0 C 6,1 C 71 % 1025,3 hPa 0,0 l/m 0 min 0 min 0 W/m 0,0 km/h (0 Bft) 97,87 %
17.04.2023 22:48 11,2 C 10,0 C 6,1 C 71 % 1025,3 hPa 0,0 l/m 0 min 0 min 0 W/m 0,0 km/h (0 Bft) 100,00 %
17.04.2023 22:50 11,2 C 10,0 C 6,1 C 71 % 1025,3 hPa 0,0 l/m 0 min 0 min 0 W/m 3,2 km/h (1 Bft) 100,00 %
17.04.2023 22:52 11,2 C 10,0 C 6,1 C 71 % 1025,3 hPa 0,0 l/m 0 min 0 min 0 W/m 3,2 km/h (1 Bft) 100,00 %
17.04.2023 22:54 11,1 C 10,0 C 6,1 C 71 % 1025,3 hPa 0,0 l/m 0 min 0 min 0 W/m 3,2 km/h (1 Bft) 97,87 %
17.04.2023 22:56 11,1 C 10,0 C 6,1 C 71 % 1025,3 hPa 0,0 l/m 0 min 0 min 0 W/m 3,2 km/h (1 Bft) 97,87 %
17.04.2023 22:58 11,1 C 10,0 C 6,1 C 71 % 1025,3 hPa 0,0 l/m 0 min 0 min 0 W/m 3,2 km/h (1 Bft) 97,87 %
17.04.2023 23:00 11,1 C 10,0 C 6,1 C 71 % 1025,3 hPa 0,0 l/m 0 min 0 min 0 W/m 3,2 km/h (1 Bft) 97,87 %
17.04.2023 23:02 11,1 C 10,0 C 6,1 C 72 % 1025,3 hPa 0,0 l/m 0 min 0 min 0 W/m 0,0 km/h (0 Bft) 97,87 %
17.04.2023 23:04 11,0 C 10,0 C 6,1 C 72 % 1025,2 hPa 0,0 l/m 0 min 0 min 0 W/m 6,4 km/h (2 Bft) 97,87 %
17.04.2023 23:08 11,0 C 10,0 C 6,1 C 71 % 1025,3 hPa 0,0 l/m 0 min 0 min 0 W/m 6,4 km/h (2 Bft) 96,55 %
17.04.2023 23:10 11,0 C 10,0 C 6,1 C 72 % 1025,3 hPa 0,0 l/m 0 min 0 min 0 W/m 6,4 km/h (2 Bft) 97,87 %
17.04.2023 23:12 11,0 C 10,0 C 6,1 C 72 % 1025,3 hPa 0,0 l/m 0 min 0 min 0 W/m 12,9 km/h (3 Bft) 97,87 %
17.04.2023 23:14 10,9 C 10,0 C 6,7 C 72 % 1025,3 hPa 0,0 l/m 0 min 0 min 0 W/m 9,7 km/h (2 Bft) 97,87 %
17.04.2023 23:16 11,0 C 10,6 C 6,7 C 72 % 1025,3 hPa 0,0 l/m 0 min 0 min 0 W/m 12,9 km/h (3 Bft) 97,87 %
17.04.2023 23:18 11,0 C 10,0 C 6,7 C 72 % 1025,3 hPa 0,0 l/m 0 min 0 min 0 W/m 6,4 km/h (2 Bft) 97,83 %
17.04.2023 23:20 10,9 C 10,0 C 6,1 C 72 % 1025,3 hPa 0,0 l/m 0 min 0 min 0 W/m 6,4 km/h (2 Bft) 95,74 %
17.04.2023 23:22 10,9 C 10,0 C 6,1 C 72 % 1025,3 hPa 0,0 l/m 0 min 0 min 0 W/m 3,2 km/h (1 Bft) 97,87 %
17.04.2023 23:24 10,9 C 10,0 C 6,1 C 72 % 1025,2 hPa 0,0 l/m 0 min 0 min 0 W/m 6,4 km/h (2 Bft) 97,87 %
17.04.2023 23:26 10,9 C 10,6 C 6,7 C 72 % 1025,2 hPa 0,0 l/m 0 min 0 min 0 W/m 12,9 km/h (3 Bft) 95,74 %
17.04.2023 23:28 10,9 C 10,6 C 6,7 C 72 % 1025,2 hPa 0,0 l/m 0 min 0 min 0 W/m 6,4 km/h (2 Bft) 100,00 %
17.04.2023 23:30 10,9 C 10,0 C 6,7 C 72 % 1025,3 hPa 0,0 l/m 0 min 0 min 0 W/m 9,7 km/h (2 Bft) 100,00 %
17.04.2023 23:32 10,9 C 10,0 C 6,7 C 72 % 1025,3 hPa 0,0 l/m 0 min 0 min 0 W/m 12,9 km/h (3 Bft) 100,00 %
17.04.2023 23:34 10,9 C 10,0 C 6,7 C 72 % 1025,3 hPa 0,0 l/m 0 min 0 min 0 W/m 6,4 km/h (2 Bft) 97,87 %
17.04.2023 23:36 10,9 C 10,0 C 6,7 C 72 % 1025,3 hPa 0,0 l/m 0 min 0 min 0 W/m 3,2 km/h (1 Bft) 100,00 %
17.04.2023 23:38 10,9 C 10,0 C 6,7 C 72 % 1025,3 hPa 0,0 l/m 0 min 0 min 0 W/m 3,2 km/h (1 Bft) 100,00 %
17.04.2023 23:40 10,9 C 10,0 C 6,7 C 72 % 1025,3 hPa 0,0 l/m 0 min 0 min 0 W/m 3,2 km/h (1 Bft) 100,00 %
17.04.2023 23:42 10,9 C 10,0 C 6,7 C 72 % 1025,3 hPa 0,0 l/m 0 min 0 min 0 W/m 6,4 km/h (2 Bft) 51,22 %
17.04.2023 23:44 10,9 C 10,0 C 6,7 C 72 % 1025,3 hPa 0,0 l/m 0 min 0 min 0 W/m 12,9 km/h (3 Bft) 100,00 %
17.04.2023 23:46 10,9 C 10,0 C 6,7 C 72 % 1025,3 hPa 0,0 l/m 0 min 0 min 0 W/m 6,4 km/h (2 Bft) 100,00 %
17.04.2023 23:48 10,9 C 10,0 C 6,7 C 72 % 1025,3 hPa 0,0 l/m 0 min 0 min 0 W/m 3,2 km/h (1 Bft) 100,00 %
17.04.2023 23:50 10,9 C 10,0 C 6,7 C 72 % 1025,3 hPa 0,0 l/m 0 min 0 min 0 W/m 3,2 km/h (1 Bft) 98,11 %
17.04.2023 23:52 10,9 C 10,0 C 6,1 C 72 % 1025,3 hPa 0,0 l/m 0 min 0 min 0 W/m 3,2 km/h (1 Bft) 100,00 %
17.04.2023 23:54 10,9 C 10,0 C 6,1 C 72 % 1025,4 hPa 0,0 l/m 0 min 0 min 0 W/m 6,4 km/h (2 Bft) 97,92 %
17.04.2023 23:56 10,9 C 10,0 C 6,1 C 73 % 1025,4 hPa 0,0 l/m 0 min 0 min 0 W/m 12,9 km/h (3 Bft) 95,74 %
17.04.2023 23:58 10,8 C 10,0 C 6,1 C 73 % 1025,4 hPa 0,0 l/m 0 min 0 min 0 W/m 6,4 km/h (2 Bft) 97,87 %
_ Min-Zeit 06:52 04:10 05:12 17:28 02:46 - - - - 20:02 23:42
Minimum _ 8,8 C 8,3 C 5,0 C 51 % 1024,7 hPa - - - - 0,0 km/h (0 Bft) 51,22 %
_ Max-Zeit 15:36 13:50 12:38 07:00 11:38 00:00 18:12 00:00 12:40 15:50 00:00
Maximum _ 17,5 C 26,7 C 14,4 C 97 % 1026,7 hPa 0,0 l/m 4 min 0 min 973 W/m 32,2 km/h
N (5 Bft)
100,00 %
Durchschnitt _ 12,0 C 12,9 C 8,1 C 79 % 1025,4 hPa #0,0 l/m #5:44 h #0 min. 315 W/m 11,3 km/h (2 Bft) 97,23 %
© 2023 W. Hausmann